GFSNE_250_spd_000.txt.gz
Wind_Speed
115 130 147 154 156 156 161 159 146 137 131 132 126 121 118 113 110 112 120 114 107 97 94 95 89 85 82 81 80 76 79 82 80 80 78 73 73 71
99 107 116 125 135 138 138 154 161 158 150 143 138 133 130 123 120 121 123 125 117 110 106 97 92 88 88 88 86 85 87 86 87 86 83 79 76 80
91 94 99 106 112 116 112 110 127 152 161 157 153 144 137 136 133 131 129 131 125 123 113 109 99 96 93 92 92 92 91 90 87 87 86 88 88 90
92 96 98 102 102 104 98 95 98 110 124 151 158 155 147 147 139 135 133 129 130 128 123 115 105 101 98 100 97 93 93 94 93 90 89 92 94 92
84 86 87 92 90 92 91 87 87 98 110 116 141 156 161 156 145 139 134 131 129 129 125 123 112 110 107 105 102 99 97 97 98 96 96 97 96 92
75 76 77 80 81 83 79 75 81 86 100 108 113 137 156 161 159 145 141 135 127 127 125 124 113 104 107 108 106 97 94 97 96 96 101 100 100 97
65 65 65 67 70 72 72 67 72 76 89 104 106 119 139 151 159 155 153 141 131 129 123 121 111 103 101 101 99 92 95 100 99 100 102 104 101 96
59 59 59 59 61 64 65 66 67 71 80 93 103 108 122 138 153 154 154 144 138 130 126 119 113 108 104 103 104 103 99 100 105 108 106 102 101 101
55 55 55 56 56 58 60 61 63 67 73 85 98 100 110 119 139 151 153 147 141 137 128 120 118 114 112 111 109 104 100 103 108 108 105 103 103 103
49 49 51 50 51 52 55 57 60 63 70 77 88 97 103 112 121 143 153 150 144 146 134 120 118 117 114 109 106 102 107 108 106 109 107 103 104 106
45 44 44 46 45 46 51 53 57 62 68 74 80 92 97 105 109 129 146 152 145 146 138 125 123 123 123 114 110 109 108 109 108 110 107 107 109 111
41 41 40 42 42 42 48 51 54 59 61 67 74 84 89 97 106 116 131 148 151 147 139 127 123 128 118 112 109 109 108 110 107 112 113 114 115 116
40 39 38 39 39 39 44 48 51 54 59 63 68 74 82 86 97 103 116 134 146 147 140 132 132 128 122 119 114 114 110 114 116 119 118 119 122 121
34 35 35 35 36 35 39 43 46 49 53 57 61 64 73 82 88 94 101 114 137 150 152 148 137 133 129 128 125 124 118 119 126 126 127 126 125 126
27 28 30 31 31 32 34 36 40 44 49 52 54 57 62 74 82 83 92 102 115 135 154 155 151 150 145 138 134 135 133 133 136 139 140 137 135 135
25 25 25 27 27 26 27 31 36 39 44 47 48 49 50 60 71 79 85 91 102 116 133 152 156 155 154 152 149 146 145 142 142 149 142 141 141 143
17 19 22 24 23 22 23 26 30 34 37 41 45 46 45 49 59 69 74 82 89 99 114 126 141 154 157 156 155 152 151 150 149 149 149 149 149 148
12 13 15 17 17 17 20 23 26 29 32 36 40 42 43 44 49 57 64 72 80 87 95 105 120 128 139 151 157 156 155 155 155 156 156 157 156 155
11 10 10 10 11 14 17 20 22 25 28 31 34 38 40 40 43 49 56 62 70 79 84 93 103 112 122 130 135 142 149 155 158 159 159 159 157 156
10 8 7 7 9 11 13 16 19 22 24 26 30 33 35 38 40 45 50 56 63 69 77 83 90 99 104 112 119 125 131 135 139 143 145 145 144 143
11 8 7 8 9 9 11 13 16 18 21 23 25 29 33 36 39 44 47 50 53 58 66 72 79 87 94 98 101 105 107 110 116 120 123 125 125 124
7 9 9 8 9 9 12 13 14 17 20 21 23 27 29 35 39 43 46 50 52 57 63 67 72 76 78 82 87 89 93 98 102 103 106 106 106 107
11 9 10 9 8 9 9 8 9 13 17 21 24 26 29 32 36 41 44 48 52 55 59 63 66 69 72 74 77 80 83 84 88 90 92 95 97 99

GFSNE_250_spd_003.txt.gz
Wind_Speed
101 120 131 147 159 165 166 159 161 153 147 147 144 139 136 129 122 123 118 111 106 109 106 103 97 95 91 87 82 84 80 79 76 70 68 68 68 63
93 103 116 127 136 143 150 162 169 169 165 157 155 148 141 135 132 122 118 121 117 115 111 109 107 103 99 94 93 93 88 84 85 78 76 76 72 72
86 92 99 108 117 124 132 139 141 146 148 160 168 163 157 148 145 137 131 121 120 121 117 117 114 111 106 102 98 96 89 88 87 84 82 80 82 79
83 85 85 92 96 103 110 116 120 123 123 122 129 152 169 165 162 151 148 139 127 125 124 122 122 117 116 111 103 96 91 88 90 87 89 87 84 85
79 81 83 87 87 91 95 99 102 103 103 106 111 113 125 141 155 163 158 150 140 132 127 126 129 123 122 119 115 106 104 94 95 97 99 96 94 90
75 76 77 77 78 80 82 84 87 88 88 92 98 100 106 113 114 124 139 153 149 144 135 136 139 131 129 124 121 118 114 107 103 101 103 103 100 97
72 73 74 73 73 74 74 77 78 77 76 79 83 89 92 100 101 106 117 133 147 148 145 143 143 142 137 135 131 125 122 113 104 101 102 104 103 101
65 66 66 66 66 67 67 70 72 72 71 72 75 79 83 91 95 98 105 111 126 145 154 152 147 146 145 141 136 133 126 121 110 104 103 102 104 104
57 58 58 58 59 60 60 62 64 66 67 67 69 73 81 87 95 96 100 104 107 126 147 153 151 147 149 145 141 135 128 125 117 106 103 103 108 111
52 53 54 54 54 55 55 57 59 61 63 64 63 72 78 87 97 97 95 102 102 111 134 154 150 149 151 153 146 139 129 125 122 110 105 105 108 108
47 47 47 48 48 47 49 51 53 56 59 61 63 71 78 84 91 95 94 98 99 105 119 136 145 147 149 147 141 135 127 122 118 119 111 107 106 108
41 41 40 40 41 41 41 43 47 50 54 58 62 67 75 80 87 91 91 95 96 103 110 128 136 145 148 143 137 132 125 123 123 123 120 112 111 108
38 37 39 40 38 37 38 41 43 44 47 53 58 63 69 76 81 87 87 90 93 100 107 121 128 141 147 145 138 130 130 126 126 123 120 116 116 114
34 34 36 37 36 35 35 36 38 38 42 48 52 57 62 68 76 83 83 84 89 95 105 111 117 133 146 148 144 139 133 129 126 124 121 118 119 120
33 33 32 32 32 31 29 31 33 35 39 43 46 49 55 62 69 75 75 76 82 89 99 103 108 124 138 145 143 142 141 136 135 129 128 125 123 121
29 30 31 29 26 25 26 27 30 33 37 40 42 45 48 53 59 63 69 71 74 81 91 98 102 116 133 141 143 140 137 138 134 134 128 126 124 120
24 25 26 25 23 22 22 23 27 30 32 35 37 40 43 45 49 56 62 64 69 74 82 95 101 106 119 129 141 142 136 138 133 130 126 125 125 124
22 19 18 20 20 18 19 21 23 26 28 30 33 34 36 39 42 48 53 53 59 69 75 81 89 98 108 121 129 141 141 138 133 132 128 126 129 126
16 15 15 16 16 16 16 17 20 23 25 27 29 31 33 35 37 42 45 49 53 61 67 70 79 89 97 107 123 134 142 142 137 137 131 130 132 132
15 13 12 11 11 12 13 15 17 19 22 23 25 27 30 33 36 37 43 48 51 56 61 66 72 77 85 96 114 125 138 142 142 139 136 135 135 137
15 13 13 11 10 10 10 10 13 15 18 20 22 24 27 31 34 38 41 44 48 54 58 63 64 68 75 88 100 119 129 140 145 145 144 144 144 145
12 12 12 11 11 9 6 7 8 10 14 17 21 23 25 28 32 35 39 43 47 49 55 60 63 66 74 79 85 97 113 126 136 146 151 152 152 154
13 12 13 13 11 9 9 6 6 8 9 12 17 21 24 28 31 35 39 42 45 50 52 55 59 62 67 74 80 86 93 101 114 127 134 137 143 147

GFSNE_250_spd_006.txt.gz
Wind_Speed
81 86 92 98 113 123 127 137 151 146 147 147 142 141 137 133 127 129 125 121 118 114 106 103 102 96 97 97 91 90 84 78 83 81 75 69 66 61
76 82 87 91 98 106 118 129 132 145 155 153 153 151 148 142 136 131 126 126 126 120 114 116 115 110 105 104 99 97 92 82 86 89 82 75 74 70
73 77 82 87 91 96 102 111 120 126 130 151 163 158 156 155 147 144 139 131 125 123 121 116 118 117 118 113 107 102 99 91 90 90 89 84 81 80
73 75 77 83 86 91 95 98 102 110 114 123 139 149 162 170 159 155 146 142 137 131 126 120 117 120 121 121 119 115 106 100 97 91 96 90 87 88
71 73 75 79 80 85 89 90 95 98 100 101 110 118 128 138 152 168 163 157 149 143 142 139 131 124 123 120 124 121 117 113 106 97 102 98 94 93
70 72 75 76 77 80 82 85 89 91 93 93 94 102 107 113 124 135 146 164 167 159 153 152 147 142 130 126 130 123 117 117 111 105 104 103 100 98
68 69 70 71 73 74 76 80 82 84 87 89 91 94 99 106 111 116 118 124 136 155 163 165 163 149 146 140 141 128 123 118 120 112 109 107 103 106
62 63 64 65 66 67 68 72 75 77 79 82 83 87 90 95 103 110 109 108 103 111 119 125 136 154 159 149 148 145 135 131 123 120 116 112 110 110
55 56 57 57 58 59 61 63 65 67 70 73 76 81 83 87 93 97 101 100 96 102 107 110 119 125 133 155 158 158 150 139 132 130 121 119 120 118
49 49 49 50 51 52 55 56 58 61 62 63 66 71 73 77 83 90 92 94 93 97 101 98 105 107 110 113 135 160 161 148 140 137 134 130 125 122
46 45 45 47 47 47 49 51 53 57 58 60 63 65 66 66 73 80 84 87 89 91 94 96 98 100 104 110 126 144 148 149 145 141 138 135 131 128
43 42 42 42 42 41 42 43 46 50 51 54 59 61 63 64 67 69 75 78 82 86 93 91 96 99 102 103 112 132 141 143 138 134 135 136 132 131
39 38 37 37 37 37 37 38 41 44 46 47 51 54 58 60 64 66 69 72 76 81 86 86 91 99 100 99 110 117 129 138 136 129 129 131 134 134
34 33 32 31 33 33 33 34 36 38 39 41 43 46 52 56 59 59 64 69 72 75 82 83 89 96 97 101 109 115 120 130 134 131 134 134 136 131
30 29 28 27 27 28 28 28 30 32 35 39 42 44 49 52 51 51 56 65 70 73 75 74 84 91 96 100 107 111 116 123 129 133 133 133 129 123
28 28 25 25 26 26 25 25 26 28 31 34 37 40 42 44 46 47 52 60 65 68 69 71 77 85 93 100 106 107 108 115 124 131 133 133 131 127
29 25 25 25 23 21 20 21 23 24 26 30 32 34 35 36 39 44 49 53 58 60 64 67 71 80 88 97 104 104 105 109 121 129 134 135 134 132
24 24 24 21 18 17 17 17 18 19 23 26 27 29 30 31 34 38 42 47 50 54 58 61 65 73 82 91 98 102 102 106 117 122 132 136 136 134
22 21 22 18 16 15 14 14 15 17 18 21 22 24 26 29 31 33 39 42 46 49 52 56 60 67 73 81 90 95 95 100 109 116 128 132 135 138
19 21 20 17 16 14 12 10 11 13 14 15 18 20 23 25 28 31 35 38 42 45 50 52 54 59 65 70 79 85 91 98 101 110 119 126 133 135
18 19 14 16 15 14 12 10 8 9 10 11 13 16 19 23 24 27 32 36 38 41 46 49 53 55 61 68 75 77 83 91 98 102 106 116 123 129
16 15 14 12 11 10 9 8 9 9 9 10 10 12 15 18 21 25 30 34 38 41 45 47 51 53 58 63 67 73 79 83 90 98 103 108 115 119
14 14 13 12 12 13 10 9 7 8 9 8 8 9 12 15 19 22 27 33 36 38 41 42 46 53 56 60 64 71 76 79 87 93 99 109 111 114

GFSNE_250_spd_009.txt.gz
Wind_Speed
66 66 66 68 73 77 83 88 97 105 115 121 129 135 134 132 130 126 121 122 120 115 111 109 108 104 99 97 94 92 95 90 87 83 81 77 75 74
64 64 64 65 69 74 79 84 89 97 106 116 117 129 137 135 135 131 129 125 124 119 116 114 112 108 106 103 101 96 99 101 96 89 85 80 80 78
64 62 64 66 65 71 76 81 85 88 93 111 118 122 126 138 137 136 135 132 128 125 123 118 114 111 112 111 109 106 106 107 103 92 88 85 80 80
63 63 64 66 66 68 73 77 81 84 85 95 108 117 122 122 130 141 140 137 137 134 129 126 120 118 115 113 111 111 108 117 108 102 94 85 86 86
61 61 62 64 66 69 70 71 76 80 83 85 95 106 114 122 132 133 133 143 143 140 139 132 131 126 122 119 115 115 113 119 114 102 103 96 95 93
60 61 61 62 64 67 69 71 73 76 80 82 86 94 101 109 116 125 133 134 135 143 147 143 142 136 131 130 123 121 120 119 116 115 113 109 111 106
61 60 59 59 61 62 64 70 70 71 73 76 80 89 95 101 106 112 116 122 127 131 136 143 149 144 139 137 134 130 127 126 126 122 118 114 113 108
57 58 56 57 58 58 61 63 65 67 70 71 74 79 88 97 100 104 107 112 116 115 116 125 129 144 153 145 141 136 134 130 132 126 125 116 112 108
53 53 53 52 53 54 56 58 60 63 66 69 71 74 78 85 93 98 102 104 109 114 109 109 117 122 125 143 155 150 145 140 136 132 127 125 118 117
49 48 48 47 46 48 50 52 55 58 60 63 66 72 73 76 81 88 92 96 100 104 107 106 112 110 113 112 119 138 156 154 149 145 140 134 128 130
45 44 43 43 43 44 46 48 49 52 54 56 60 63 65 69 74 80 83 87 91 97 99 101 103 105 106 103 103 109 119 135 160 155 151 143 141 137
41 41 39 39 40 39 41 44 47 48 49 52 55 59 61 63 66 71 75 80 84 86 91 94 97 99 98 99 96 100 105 113 120 144 155 151 147 145
39 37 35 35 35 36 37 40 41 44 46 48 51 54 57 59 61 64 67 71 78 83 85 85 88 89 90 93 93 94 99 104 106 117 129 143 153 153
35 34 33 31 30 31 33 35 36 39 41 44 47 50 53 55 55 55 60 64 71 77 79 79 82 81 81 85 88 91 97 99 99 108 120 121 122 134
32 31 26 25 24 24 26 27 29 32 36 40 41 44 47 48 49 53 56 61 67 71 73 75 76 76 75 78 84 89 95 97 96 102 106 112 118 124
29 26 24 22 21 23 24 25 28 29 30 32 34 37 40 43 44 48 52 55 59 63 67 69 70 70 71 75 78 86 91 92 95 101 102 106 112 117
25 24 23 21 20 19 19 20 22 24 26 28 29 30 34 36 38 42 45 46 49 54 60 63 64 65 66 70 75 81 85 90 96 98 100 102 104 107
23 22 21 20 20 18 18 19 20 21 23 24 25 26 27 28 31 35 38 40 42 47 52 56 59 61 63 67 71 76 81 89 93 96 98 102 104 104
22 21 19 20 20 19 18 18 19 19 20 20 21 22 22 23 26 29 33 36 38 42 46 49 52 56 58 60 66 70 78 86 91 93 98 101 103 105
19 17 16 18 16 17 17 17 18 16 15 16 17 18 19 20 22 25 29 31 33 37 40 42 45 49 53 57 61 68 76 83 87 90 96 99 101 104
16 16 16 17 17 15 15 16 14 14 14 13 13 15 16 17 20 22 25 28 31 34 36 37 41 45 49 53 57 62 68 74 79 86 91 94 94 100
15 16 16 15 14 14 12 13 15 14 12 12 11 12 14 14 16 19 22 25 29 31 33 34 37 41 46 51 52 55 63 72 77 82 87 89 91 96
15 16 15 16 15 14 12 11 10 12 13 10 9 10 11 14 15 17 20 23 27 29 31 34 37 40 43 46 49 55 61 68 74 78 83 86 88 93

GFSNE_250_spd_012.txt.gz
Wind_Speed
82 74 68 66 66 68 72 72 72 78 87 99 101 101 103 106 112 126 126 129 119 116 114 112 106 101 102 97 94 92 91 90 89 80 77 76 74 72
74 68 68 68 66 66 68 71 72 73 80 90 97 101 103 105 109 116 128 130 132 123 121 117 115 113 109 105 98 93 95 92 99 88 83 81 81 80
71 68 66 65 63 62 62 65 69 70 74 86 91 97 100 103 107 112 119 130 132 132 127 124 122 121 118 115 112 107 107 102 101 95 95 90 89 84
68 64 62 60 59 59 58 58 62 66 69 79 88 93 96 100 103 107 111 123 130 133 134 128 126 126 124 121 121 117 112 111 108 101 101 98 96 90
63 60 59 57 58 58 57 57 58 62 65 71 81 88 92 96 99 101 107 114 122 130 133 136 134 130 127 124 122 120 115 110 111 109 108 105 103 99
60 58 56 56 56 58 59 58 60 58 61 65 73 81 86 90 93 96 100 105 112 120 130 134 136 137 133 129 122 118 116 115 112 113 115 109 110 108
60 58 57 56 56 56 56 59 58 59 61 62 67 77 84 87 87 90 92 97 99 103 111 122 130 136 139 136 130 124 120 118 117 116 118 115 114 116
57 56 53 52 51 51 52 53 55 55 59 62 65 70 78 83 87 88 89 92 92 95 96 102 111 116 133 139 138 135 132 126 123 120 120 115 123 123
51 50 49 48 47 47 48 50 52 54 56 57 61 66 73 79 83 86 88 87 90 94 93 94 100 106 114 126 137 139 138 135 133 127 122 122 123 128
47 45 44 45 44 45 47 48 50 52 54 53 56 61 66 72 76 82 85 86 88 90 91 91 97 98 105 114 122 133 138 142 139 134 130 127 128 124
41 39 42 44 42 42 44 45 46 49 48 49 52 56 59 66 71 75 81 84 89 90 91 92 93 96 100 103 110 116 126 137 143 141 137 134 132 131
39 38 38 39 39 39 40 43 46 44 45 48 50 52 55 60 65 69 75 80 84 86 90 92 94 95 95 99 101 104 110 117 126 142 148 142 136 136
37 36 34 34 35 36 37 39 41 42 43 45 47 49 52 54 59 63 68 72 75 79 85 88 91 92 91 95 94 92 98 102 108 118 129 144 150 146
34 33 32 32 32 32 33 35 36 38 38 40 43 45 47 49 52 57 61 64 67 73 78 81 85 88 90 92 92 91 90 96 100 104 111 122 137 152
32 31 29 28 26 27 28 29 32 33 35 37 40 42 44 45 47 51 56 59 62 65 70 74 80 81 81 86 88 88 88 91 95 97 101 107 116 124
30 29 26 25 24 23 26 27 29 30 31 33 36 37 41 44 45 47 50 53 57 60 63 69 72 72 73 77 80 84 86 89 92 95 98 102 106 111
27 26 24 24 22 21 22 23 21 22 23 26 30 34 37 39 42 44 47 48 51 54 58 63 66 67 69 68 69 73 78 84 89 92 95 99 103 104
24 24 22 22 21 21 20 18 19 21 22 22 23 25 28 32 36 38 40 42 47 49 52 55 57 58 60 62 66 68 69 75 81 89 92 94 99 99
22 20 21 21 20 20 18 18 20 22 22 20 20 21 23 26 28 32 34 38 41 43 47 49 50 50 52 56 61 65 66 68 73 81 86 88 92 94
20 18 20 19 20 20 20 18 18 17 18 17 16 18 20 22 25 27 29 32 35 38 40 41 43 45 49 51 56 59 61 64 67 73 78 84 89 92
18 18 19 19 20 19 21 19 17 15 14 15 14 14 15 18 22 24 26 27 30 33 35 38 41 43 44 47 52 51 57 62 66 69 75 80 85 90
17 18 19 19 19 19 18 18 17 16 12 11 12 13 13 15 18 21 24 25 27 29 32 35 37 39 43 46 45 48 52 57 61 64 68 73 79 87
17 19 19 20 19 18 17 16 16 16 15 12 11 12 12 14 16 18 21 23 25 27 30 32 33 36 40 42 43 44 47 52 54 58 63 68 74 80

GFSNE_250_spd_015.txt.gz
Wind_Speed
85 82 80 80 78 77 75 75 74 75 77 88 92 94 91 93 98 106 108 110 114 123 124 123 117 114 109 115 111 111 108 109 98 99 94 88 84 86
78 78 78 76 75 74 72 71 70 69 71 80 86 90 89 92 96 102 107 111 113 117 130 128 123 120 115 116 113 114 111 108 110 105 102 100 90 86
78 75 73 72 69 67 67 67 68 70 69 80 83 87 87 88 91 95 101 106 111 116 121 135 129 125 122 117 115 119 111 110 108 101 103 104 101 88
76 75 72 69 66 65 65 64 63 65 66 72 83 88 89 88 90 91 96 103 108 112 119 123 137 131 126 118 116 121 117 111 111 109 107 103 104 98
76 75 73 69 67 65 63 61 61 60 61 66 76 83 87 88 88 90 92 98 106 111 116 121 123 140 134 127 122 123 124 117 114 113 110 109 107 108
74 71 67 64 61 59 59 60 59 58 59 60 69 77 82 86 85 87 89 92 99 109 113 118 121 126 140 134 128 122 125 126 120 117 115 115 113 111
70 65 61 57 56 56 56 58 58 58 60 60 62 71 76 81 82 83 85 89 92 99 109 115 121 121 127 138 137 131 128 127 127 123 120 119 116 116
61 58 56 54 54 55 56 57 58 56 57 58 60 65 71 75 80 80 81 83 86 91 99 109 116 119 122 129 140 139 133 131 129 127 123 126 122 120
53 53 54 54 53 53 54 55 55 54 54 54 58 62 67 70 74 78 80 78 83 87 89 96 103 111 117 124 134 142 139 135 133 131 128 130 127 125
48 50 51 52 49 48 49 49 49 49 47 48 53 58 64 68 70 73 77 79 79 84 85 88 95 100 110 116 124 137 143 143 141 137 136 135 136 131
46 46 47 47 45 44 47 49 48 45 45 48 51 55 59 64 67 70 73 77 80 80 81 83 90 92 99 106 113 122 136 146 147 143 141 138 142 140
42 43 42 44 44 42 44 45 44 42 42 43 46 50 54 57 60 65 69 73 77 79 79 80 85 88 92 97 104 110 119 134 143 147 146 143 143 144
40 39 40 39 39 40 39 40 40 40 39 39 41 45 49 52 55 58 63 66 71 76 79 78 79 82 87 93 99 104 108 117 127 138 145 149 148 144
38 36 35 35 34 34 35 38 39 39 37 36 36 39 44 48 51 53 57 60 66 71 74 75 79 79 83 89 93 96 101 107 114 121 131 143 146 150
35 34 33 31 30 31 31 32 33 34 35 34 34 35 39 41 44 49 52 55 58 63 68 71 75 78 80 84 87 90 92 98 103 109 114 123 129 130
32 31 31 28 28 28 28 28 29 29 31 33 34 32 34 37 41 42 45 50 54 57 60 62 66 71 75 80 82 84 85 87 94 99 106 110 115 120
30 29 28 26 25 25 24 26 26 26 27 28 28 30 32 33 36 39 41 42 48 52 54 58 62 64 67 72 76 79 79 82 88 91 95 100 105 110
28 27 26 25 24 23 23 22 23 22 22 24 24 24 25 28 32 33 36 39 41 43 48 53 55 58 63 65 69 71 74 78 80 83 86 90 97 102
26 25 26 25 22 21 21 19 20 22 21 21 22 22 22 22 25 29 30 32 36 40 42 45 49 53 56 59 63 67 68 70 72 78 82 84 86 93
24 23 25 24 23 21 20 19 20 21 21 21 21 21 22 21 21 23 26 28 30 32 35 39 43 46 50 53 54 55 58 65 70 72 73 75 81 87
23 23 24 24 22 21 20 20 20 20 19 19 19 19 19 21 21 21 22 24 27 29 31 34 37 41 44 46 49 51 55 61 65 64 65 67 75 84
22 22 23 23 22 21 21 20 20 19 17 16 17 17 17 17 19 20 21 22 24 26 29 32 34 37 39 43 46 49 52 56 57 59 61 66 73 76
21 22 23 23 22 21 21 20 18 19 18 18 16 15 15 15 15 18 20 21 22 25 27 30 32 34 37 40 43 48 52 54 56 55 59 65 68 70

GFSNE_250_spd_018.txt.gz
Wind_Speed
73 75 74 72 72 74 75 74 73 71 76 85 96 100 100 98 96 94 98 102 106 109 112 117 120 119 120 120 120 117 114 123 123 111 100 99 96 93
73 75 75 74 74 71 70 69 68 65 64 77 83 91 93 93 92 91 92 97 100 104 107 113 118 119 123 123 122 117 112 113 121 120 110 106 100 97
75 74 73 73 72 71 68 66 64 63 58 67 75 85 91 90 90 87 87 90 94 100 103 108 114 119 122 127 127 122 114 111 113 121 116 115 103 95
78 78 77 75 73 72 70 67 64 64 60 60 73 76 83 88 86 84 80 82 88 94 101 106 114 118 120 131 131 129 122 113 115 127 119 119 108 101
76 76 75 74 71 68 67 67 67 65 63 61 71 77 80 87 87 83 81 78 80 89 99 107 112 116 120 125 137 137 130 124 117 126 125 124 117 116
75 74 72 70 69 69 67 66 64 63 62 59 64 72 74 80 83 82 78 77 78 82 91 102 108 113 118 122 129 138 141 129 123 120 129 131 128 120
69 67 65 64 64 63 63 63 61 60 59 58 60 66 70 74 78 80 75 73 74 78 84 92 102 106 112 119 126 131 139 136 135 127 119 129 132 124
64 63 63 62 60 58 57 58 61 60 59 57 59 63 68 70 74 75 75 73 73 75 77 86 92 97 106 113 120 129 132 137 139 131 122 126 130 129
58 58 59 57 54 54 56 56 57 57 56 53 54 60 62 65 70 73 74 73 74 72 71 78 86 92 95 105 114 122 130 131 138 136 130 128 132 131
50 50 51 52 50 52 53 53 52 51 49 50 54 57 58 59 62 67 70 70 72 72 69 75 80 87 92 96 106 114 124 129 137 138 135 130 133 133
44 44 46 48 47 49 51 49 47 44 44 45 47 51 52 53 56 60 64 65 69 72 68 72 75 81 88 94 99 108 117 126 130 138 143 139 135 136
39 41 44 46 46 45 45 43 44 43 42 43 45 48 51 51 52 55 58 60 63 65 68 71 72 76 81 89 95 100 109 120 127 132 135 142 142 136
38 40 42 43 41 41 40 40 41 40 39 39 39 41 45 47 48 51 54 56 58 63 63 68 70 71 77 83 90 96 101 108 119 126 132 131 141 143
38 39 39 37 37 37 36 37 37 37 35 35 35 36 39 41 44 46 50 53 55 61 61 63 68 70 74 80 85 90 96 102 107 117 126 130 132 140
37 36 34 32 33 34 35 35 34 34 33 33 33 34 34 35 37 41 45 50 53 55 57 60 61 65 70 76 80 85 90 95 100 107 115 125 129 133
34 33 30 30 31 30 32 32 30 30 30 30 31 31 31 32 31 34 36 42 49 52 54 55 56 59 65 71 75 79 85 89 94 100 105 111 123 128
30 29 28 29 29 28 29 29 28 26 26 26 27 29 31 31 30 30 31 34 40 46 49 50 52 56 60 64 68 72 77 83 89 94 99 105 111 119
28 27 27 27 27 27 27 26 25 25 23 23 23 24 26 28 30 30 30 30 35 37 43 46 48 52 56 59 65 68 68 74 83 88 93 98 102 109
26 26 27 26 26 26 26 25 24 22 21 20 21 20 22 22 23 23 29 30 30 32 37 40 44 48 52 55 60 62 64 68 73 78 86 92 97 101
25 26 26 25 24 25 24 23 22 21 21 21 19 19 20 20 20 18 21 25 29 30 29 34 40 45 49 51 54 58 62 63 65 69 76 83 89 96
25 25 25 25 24 24 23 21 20 20 19 19 18 19 19 20 20 20 19 19 23 26 28 30 35 39 43 46 50 53 56 58 61 65 70 74 82 88
23 23 23 24 24 23 21 20 19 19 18 18 17 18 19 20 20 20 20 19 19 22 25 27 29 33 38 42 45 49 52 55 58 61 65 71 76 81
21 22 22 23 23 23 22 20 19 18 18 18 17 18 18 19 19 19 19 20 20 20 22 25 27 30 33 37 41 43 46 50 55 58 62 65 67 69

GFSNE_250_spd_021.txt.gz
Wind_Speed
82 78 76 72 72 73 72 73 75 75 79 86 88 92 94 97 99 101 102 106 113 115 115 117 117 117 118 118 120 119 120 128 125 119 116 107 103 95
81 78 75 74 73 73 72 71 72 72 71 81 85 87 90 93 95 95 95 96 100 107 112 115 118 119 120 123 123 123 122 126 133 128 125 117 111 103
79 79 77 75 74 73 72 71 70 71 67 71 78 83 87 90 95 97 95 93 91 95 102 109 115 119 119 124 125 126 125 124 131 135 133 127 123 113
76 76 75 74 73 73 72 71 70 68 65 66 78 80 83 90 92 95 97 96 92 90 91 99 106 112 116 121 125 126 127 125 130 134 136 134 127 125
72 71 71 72 71 70 70 70 69 67 65 64 73 79 81 88 93 93 93 92 90 87 85 86 93 103 109 112 116 122 126 126 125 134 137 140 135 129
66 66 66 66 66 65 65 65 64 63 62 60 65 74 74 81 85 89 90 89 86 83 81 80 84 91 100 108 110 114 120 126 123 126 137 140 142 136
63 61 60 59 59 58 59 60 60 59 59 58 60 66 69 71 76 80 82 83 81 79 76 75 76 83 92 101 107 110 113 120 122 122 129 140 142 142
57 57 55 55 55 56 57 57 58 58 57 54 55 61 62 62 65 69 70 73 75 72 71 71 69 74 82 91 102 107 110 116 119 120 126 136 140 141
52 52 53 53 53 53 54 54 53 53 51 49 53 57 58 58 60 64 67 68 69 68 65 67 65 69 78 87 94 101 105 112 118 121 123 128 135 141
46 47 49 50 47 48 49 48 46 47 47 49 53 55 56 56 57 60 63 66 68 66 64 65 62 65 71 81 90 92 94 103 112 119 124 126 131 130
40 42 44 43 41 43 42 43 43 43 46 48 51 53 52 51 52 54 59 59 63 63 62 62 61 65 65 73 84 88 88 96 106 113 123 125 130 125
36 38 38 39 38 39 39 41 41 42 43 44 45 46 47 47 47 50 52 54 56 58 60 58 59 61 62 69 76 83 86 88 99 107 117 126 127 133
33 34 35 35 35 37 37 38 38 39 40 39 40 40 42 43 44 46 48 52 52 56 54 54 56 57 63 67 72 79 85 87 92 102 113 121 126 126
32 33 34 34 35 34 35 35 35 35 36 36 36 35 36 37 38 40 43 47 51 53 50 53 54 56 61 65 70 75 80 84 91 96 104 115 123 129
32 33 34 32 32 31 32 31 32 33 32 33 33 32 32 33 33 34 37 42 46 48 47 50 53 54 57 62 66 70 75 80 85 92 96 102 114 125
31 31 31 30 29 29 29 29 30 31 30 30 30 30 30 31 30 29 32 35 40 45 46 45 49 52 54 58 61 66 72 76 79 85 92 96 101 111
29 29 28 27 27 26 27 28 29 29 27 27 27 28 28 27 28 28 28 29 35 39 42 43 45 49 52 54 59 63 68 73 76 79 85 92 97 101
26 25 24 24 24 25 25 26 27 26 25 25 25 24 25 24 24 27 28 27 27 33 37 40 42 46 50 53 56 60 65 69 73 76 81 86 92 97
23 23 22 22 23 24 24 24 25 23 23 24 23 23 23 22 20 23 26 29 27 30 32 37 39 42 45 49 52 55 60 67 71 75 79 82 86 90
23 23 23 22 23 23 23 23 22 21 21 21 21 22 22 20 19 18 19 26 27 27 28 30 35 39 42 45 49 53 56 62 67 71 74 77 82 87
24 24 23 23 22 23 22 22 21 20 19 19 19 20 20 19 19 18 17 17 21 25 27 28 30 34 40 43 46 49 53 57 60 65 71 77 81 85
23 23 23 22 22 22 22 21 21 20 20 19 20 20 20 20 18 18 18 18 17 19 23 26 27 30 35 42 44 47 51 53 57 62 67 72 76 79
21 22 22 22 21 21 21 21 21 20 20 21 20 22 22 19 17 16 17 18 19 19 20 23 26 28 31 36 40 43 49 52 55 58 63 67 71 76

GFSNE_250_spd_024.txt.gz
Wind_Speed
85 88 87 87 87 86 83 81 81 80 81 84 83 84 87 91 96 104 109 116 119 122 123 124 124 123 120 118 116 114 112 112 114 115 112 108 113 109
86 87 87 87 87 86 85 82 81 79 77 82 83 83 84 85 90 94 102 108 113 117 120 123 126 127 127 126 123 122 119 117 114 116 117 115 116 117
79 80 81 80 79 79 80 79 77 76 72 81 83 85 85 85 89 91 93 96 102 107 112 118 123 124 126 129 130 128 126 124 121 118 115 118 124 124
73 73 72 72 72 70 71 73 73 72 69 75 82 86 88 90 90 91 91 91 94 98 102 106 110 116 120 124 127 129 132 130 129 125 121 115 126 128
68 67 66 65 65 65 64 65 66 66 65 66 76 83 86 91 92 92 92 92 92 93 94 95 97 102 110 117 123 127 129 132 132 132 128 124 120 131
61 59 58 58 59 60 59 60 60 61 62 63 70 80 81 86 89 92 93 93 92 90 89 88 88 87 97 105 113 118 124 128 130 134 135 131 128 124
56 55 52 52 52 52 53 55 56 58 58 58 65 73 75 78 80 85 85 87 87 89 88 85 83 82 82 93 100 106 115 121 126 129 130 134 132 131
51 49 49 49 48 48 49 50 51 52 53 54 60 65 65 64 68 72 75 79 81 82 83 82 79 80 80 79 87 97 104 111 119 123 127 130 134 134
46 46 44 44 46 45 45 46 47 46 47 49 54 60 60 61 62 65 69 70 72 77 76 80 79 80 79 76 76 83 93 103 110 115 121 125 130 132
43 41 41 42 41 41 42 42 41 41 43 46 47 50 52 53 55 57 60 62 65 69 70 71 72 73 75 77 79 82 86 92 101 108 113 117 122 129
39 39 40 40 38 37 38 36 36 36 37 40 43 46 46 47 48 51 56 55 60 64 65 65 68 68 68 70 74 79 84 89 95 102 106 110 113 118
35 38 36 35 33 33 33 33 32 33 35 38 41 44 44 45 45 49 51 53 56 60 62 58 62 63 63 68 70 74 80 87 91 96 100 103 105 109
33 35 33 32 30 31 31 30 31 31 34 36 39 41 41 42 43 44 45 48 51 56 53 53 58 59 61 65 69 72 75 82 89 93 94 97 100 102
32 32 31 29 29 29 29 31 30 32 33 34 35 36 37 38 40 42 43 45 48 52 50 50 52 56 57 60 64 69 73 79 83 87 90 91 93 96
31 30 29 28 28 28 28 28 29 30 31 31 31 32 34 35 34 35 36 39 44 47 48 48 49 52 53 55 60 65 71 76 79 82 84 84 86 89
27 28 27 25 25 26 26 26 27 28 29 29 29 29 30 30 30 30 30 31 37 40 42 44 45 47 51 53 56 61 67 73 76 78 79 80 81 85
24 24 24 23 24 25 25 25 25 27 28 27 26 26 27 27 28 29 29 27 32 36 38 40 42 43 46 50 54 59 64 68 73 74 75 77 79 83
21 22 21 21 22 24 24 23 24 26 26 25 24 26 25 26 27 27 28 28 28 30 33 37 39 40 42 46 51 56 60 63 67 71 73 75 77 81
21 20 19 19 21 22 23 23 24 25 25 24 23 24 24 24 25 25 27 27 27 27 28 31 35 37 39 42 47 52 57 61 64 68 71 74 75 78
21 21 20 20 21 22 23 24 24 24 24 23 23 23 23 22 23 22 23 26 26 27 27 27 31 34 36 38 43 49 55 59 62 65 69 72 76 78
19 20 21 22 22 23 24 24 24 24 24 24 23 23 22 22 21 20 20 22 23 23 28 28 26 30 34 37 39 44 50 56 60 63 66 69 72 76
20 20 21 22 23 24 24 24 24 24 24 24 23 24 23 22 22 19 20 21 21 21 23 25 25 27 31 34 39 42 47 52 57 60 63 67 71 75
19 19 20 22 23 24 24 25 25 25 24 24 24 24 24 24 22 20 17 19 20 20 21 20 24 25 28 32 35 40 44 48 53 59 62 65 68 70

GFSNE_250_spd_027.txt.gz
Wind_Speed
103 101 99 97 95 95 95 93 90 90 89 91 92 88 85 86 89 91 91 97 107 114 118 123 127 127 125 122 117 114 110 110 108 107 114 118 114 109
99 95 92 89 86 86 87 89 89 88 87 90 88 89 88 83 85 88 88 91 99 108 115 121 126 130 130 128 125 121 118 115 113 111 111 110 117 115
89 84 81 78 77 78 78 78 80 81 81 84 84 87 87 87 85 85 88 88 93 100 108 115 120 127 131 131 130 129 125 122 119 116 117 112 111 118
80 76 72 70 69 69 70 71 71 72 70 73 78 79 81 84 84 84 86 89 89 94 103 109 116 122 126 128 130 131 132 129 125 122 120 119 116 112
73 70 66 63 63 63 63 64 64 64 64 65 71 73 76 79 80 80 84 86 86 89 93 102 108 113 118 124 127 129 130 134 132 129 127 124 123 120
67 64 63 60 58 58 58 59 58 58 58 59 66 70 70 73 73 75 80 83 85 86 86 88 95 101 108 112 118 122 127 128 131 133 132 130 128 126
61 57 56 55 54 53 53 54 54 54 52 54 62 66 64 66 68 71 72 78 81 82 83 84 86 89 94 100 104 112 115 121 126 129 133 135 133 131
59 54 50 48 48 47 48 49 49 49 49 49 55 59 59 59 61 64 67 71 75 78 80 82 81 83 86 89 93 96 105 112 117 122 128 133 137 137
51 49 45 42 43 44 44 43 43 43 44 45 50 53 52 53 55 58 62 65 69 74 76 79 79 81 84 84 86 87 92 102 108 112 116 123 127 133
46 44 43 42 40 41 40 39 38 37 38 43 47 49 48 48 50 53 56 58 62 67 69 72 78 81 83 83 85 85 86 91 100 105 107 112 117 122
41 41 42 40 38 36 35 34 33 34 37 37 40 43 44 46 48 50 54 54 60 64 65 65 70 72 75 79 81 83 82 88 93 96 101 107 111 116
40 40 41 39 35 34 33 32 31 31 32 35 36 37 39 40 42 45 47 52 54 59 61 60 67 68 71 74 76 79 81 82 86 92 97 100 105 107
38 38 38 36 33 32 31 30 29 30 30 32 34 35 36 37 38 40 43 46 50 56 55 53 61 64 66 70 72 76 79 81 83 86 92 98 102 104
34 34 35 32 31 30 30 29 28 29 29 31 33 34 35 35 36 38 39 43 47 51 50 52 61 63 65 67 69 71 74 76 79 83 87 93 99 103
31 31 31 28 27 28 28 28 29 28 29 30 30 30 31 32 33 34 36 39 42 45 46 49 55 56 60 65 67 69 73 75 78 81 83 87 93 99
29 28 27 25 25 25 25 26 25 26 27 27 26 26 28 29 31 33 34 35 37 42 42 45 50 52 53 57 60 63 68 72 76 79 81 83 86 93
25 24 24 23 23 24 23 24 23 25 26 25 23 25 26 27 28 30 31 31 33 33 36 40 44 46 48 49 53 58 61 66 70 75 80 81 83 87
23 22 20 21 22 21 21 22 22 24 24 23 23 24 25 26 26 27 28 29 32 32 30 34 39 42 43 43 45 51 56 61 63 68 75 78 81 84
21 21 21 20 20 20 20 21 22 23 23 23 23 23 25 26 26 26 27 28 29 30 29 29 33 38 40 41 41 45 51 59 60 63 69 74 77 80
19 19 20 21 21 22 21 22 22 23 24 24 24 23 25 26 26 25 25 26 27 27 27 28 29 32 36 37 38 41 47 53 57 61 63 68 72 76
19 19 19 20 22 23 23 24 24 24 24 24 24 24 25 26 26 25 25 23 23 24 25 26 27 28 30 34 37 39 43 49 54 56 61 64 67 70
19 20 20 21 22 23 24 25 25 24 24 25 25 25 25 26 26 25 24 23 21 23 24 26 26 26 28 30 34 37 40 44 50 53 56 61 63 65
20 20 20 21 22 22 23 24 25 25 25 26 26 26 26 25 25 25 24 23 21 21 22 24 24 26 26 28 31 34 37 41 45 50 54 57 61 63

GFSNE_250_spd_030.txt.gz
Wind_Speed
110 106 104 102 99 95 90 87 83 78 77 81 84 88 93 92 95 91 89 91 98 104 114 117 120 121 125 127 123 120 118 116 116 118 119 115 110 108
107 105 100 94 89 84 80 76 74 72 69 74 73 81 86 90 91 93 86 85 91 103 107 113 119 123 125 128 130 128 125 122 119 120 121 122 116 113
101 96 91 84 79 75 73 70 69 67 64 70 69 73 78 82 86 88 87 84 87 93 101 107 111 118 125 129 132 132 131 128 124 122 122 123 126 120
92 86 82 77 74 70 66 65 64 63 61 63 67 68 70 75 78 80 82 82 84 88 91 97 101 109 120 126 131 133 134 133 130 127 125 124 122 125
84 80 75 70 66 63 61 58 56 57 57 57 62 64 65 69 70 71 72 76 81 87 91 92 93 102 111 121 126 130 133 134 133 132 131 128 128 126
77 73 69 65 61 57 55 54 53 52 53 53 58 59 59 61 62 64 66 69 73 79 88 91 90 94 103 113 122 126 129 132 135 135 135 133 131 131
68 64 62 61 59 53 50 51 50 48 49 51 54 53 54 53 53 57 59 63 67 72 78 85 89 87 89 100 111 118 121 124 131 135 136 137 136 134
62 60 55 53 52 51 47 47 46 45 46 48 50 50 49 48 49 49 52 58 62 67 72 79 84 85 87 91 99 106 110 115 121 128 133 135 137 139
57 53 50 49 48 47 45 43 42 42 42 43 46 46 47 46 45 46 48 51 56 62 64 71 76 81 85 86 89 93 98 104 110 116 123 130 133 135
52 49 48 48 45 43 41 37 37 37 38 40 42 40 42 41 43 45 46 48 53 59 60 64 70 73 77 80 83 87 89 92 97 106 112 120 127 132
48 45 45 46 43 39 37 36 34 34 36 38 37 36 38 39 41 44 43 46 50 54 55 59 65 68 72 77 81 85 86 87 90 94 100 106 114 122
47 45 42 42 38 36 35 33 32 33 33 32 34 34 34 36 38 39 42 44 47 51 50 53 63 65 69 74 78 82 84 85 86 89 92 98 104 108
40 38 37 35 33 33 32 32 30 30 29 30 30 30 31 32 34 36 37 39 43 45 46 52 59 61 65 70 73 77 81 84 86 87 92 95 97 99
36 34 32 30 29 28 29 29 28 28 28 28 28 28 28 29 31 32 34 37 40 41 44 49 54 58 62 68 71 73 75 79 83 87 89 92 95 97
33 31 29 27 25 25 25 25 26 26 26 27 27 27 28 29 31 32 33 36 39 42 44 48 51 54 57 61 65 69 73 75 77 81 85 89 92 94
30 28 26 23 23 22 22 23 24 24 25 27 27 27 28 28 30 31 32 34 36 39 42 46 49 52 54 57 61 64 65 69 74 77 80 82 85 88
28 25 23 21 20 20 20 22 22 23 24 25 25 25 26 27 27 29 31 32 34 37 39 42 45 48 50 53 56 59 60 64 68 71 75 77 79 81
25 23 22 21 20 19 19 20 21 22 24 23 23 24 24 25 26 28 30 31 32 32 33 35 37 41 45 48 49 50 53 58 62 67 70 73 75 76
23 21 20 19 19 19 19 19 20 21 23 23 23 23 23 24 26 28 28 28 28 28 30 32 33 33 38 42 43 43 45 48 56 63 66 68 68 73
21 19 19 18 18 19 20 20 21 21 22 23 22 23 24 25 26 27 27 26 26 25 27 29 31 31 31 36 39 40 40 42 47 55 62 63 63 67
20 19 19 19 19 20 21 23 23 23 23 24 24 24 25 26 26 26 26 26 25 25 25 28 29 30 30 30 33 36 38 39 43 48 55 59 60 64
20 19 19 19 20 21 22 23 24 24 24 25 26 27 27 27 27 26 26 25 25 25 23 26 26 27 27 28 28 32 36 38 41 45 48 52 55 60
20 20 20 20 20 21 22 23 24 25 26 26 27 28 28 27 27 27 26 26 25 25 25 24 26 26 26 27 28 30 33 36 40 41 44 47 50 54

GFSNE_250_spd_033.txt.gz
Wind_Speed
107 103 100 95 94 92 89 86 78 77 76 79 77 80 82 85 87 88 91 94 91 87 97 104 107 108 112 116 122 123 121 117 116 118 116 115 112 109
102 99 94 90 86 83 78 76 73 66 65 70 70 73 75 78 83 86 89 93 94 89 96 99 101 102 111 116 121 125 126 125 122 120 122 119 119 115
95 93 89 82 77 74 70 66 65 63 60 64 65 67 71 74 76 79 83 83 92 93 94 92 100 103 104 111 119 125 129 130 129 126 125 127 125 125
87 84 81 76 72 68 65 61 59 57 55 60 60 62 65 69 69 71 75 77 79 83 92 91 99 99 100 107 115 123 128 132 133 133 130 130 129 128
78 74 71 68 66 64 60 58 55 53 53 54 59 57 59 62 64 66 68 69 70 76 79 83 94 98 98 104 110 117 123 130 132 135 137 135 135 135
70 67 65 63 60 58 57 57 53 50 50 50 55 55 53 55 58 60 60 63 64 68 73 80 89 98 102 103 105 111 120 127 133 136 140 140 138 138
67 64 62 60 58 54 54 54 49 45 44 45 49 49 50 49 49 52 55 57 59 62 67 74 80 91 100 97 99 104 111 119 125 130 135 140 141 141
65 64 61 58 54 50 48 48 45 40 39 41 43 43 43 43 44 46 50 53 56 58 63 69 74 83 92 97 97 100 102 110 118 124 128 133 138 139
60 57 56 52 48 44 42 44 41 37 37 39 40 39 40 40 41 43 44 47 51 56 59 66 71 78 86 91 94 96 96 98 105 116 123 128 130 135
54 52 50 48 44 42 41 40 40 36 37 38 38 36 39 36 39 40 42 45 50 54 54 60 64 71 77 80 86 91 94 95 98 103 112 121 124 127
48 46 46 45 41 38 38 38 37 35 36 36 34 32 34 35 38 40 39 45 47 48 47 53 61 66 70 74 80 85 89 92 95 99 102 108 114 119
48 43 40 39 36 34 33 33 33 33 31 30 29 29 30 33 35 35 38 40 43 44 45 53 58 60 65 70 74 78 83 87 90 94 99 102 105 106
42 40 36 33 31 30 29 29 29 28 27 27 27 27 28 30 32 33 35 37 39 42 44 49 54 57 63 65 68 72 76 81 85 88 93 98 100 100
39 35 31 29 28 27 27 26 25 24 25 26 26 25 26 27 28 30 32 34 36 38 42 47 51 53 56 61 65 68 72 77 80 83 85 90 93 95
34 31 29 27 26 25 24 23 22 22 23 24 24 24 24 25 26 28 29 32 34 36 39 42 46 49 53 58 61 63 67 71 74 78 79 82 86 90
31 30 27 24 23 22 21 20 21 21 21 22 23 23 24 24 25 28 29 31 33 36 38 41 43 44 46 52 57 59 63 67 69 72 76 79 82 85
30 27 25 22 21 20 19 19 19 20 21 22 22 24 25 26 27 28 29 32 34 35 38 40 42 44 46 48 51 55 58 61 64 67 70 72 75 79
27 25 23 21 21 20 19 18 18 19 21 22 23 23 25 26 27 28 29 31 32 33 35 37 40 42 43 45 47 51 52 55 59 61 65 67 69 72
26 23 22 20 19 18 19 18 19 19 21 22 23 24 25 26 27 28 28 29 30 31 34 36 39 39 40 42 44 46 47 49 52 55 60 64 63 66
25 22 21 19 18 18 18 19 20 21 22 23 24 24 25 26 27 28 28 28 29 30 31 32 33 35 36 35 37 41 41 43 45 49 53 58 61 62
25 22 21 20 18 18 19 20 21 23 23 24 25 25 26 26 27 28 28 29 29 29 29 30 31 32 33 33 33 33 36 40 41 43 46 51 56 60
25 22 21 20 20 19 20 21 22 24 25 26 27 27 28 29 29 30 29 29 29 28 29 30 30 31 32 31 30 31 33 35 38 39 42 46 51 56
25 23 21 21 21 21 21 21 22 23 25 27 28 29 30 30 31 30 30 30 29 28 29 29 29 29 30 31 30 30 32 33 35 37 39 41 45 50

GFSNE_250_spd_036.txt.gz
Wind_Speed
114 108 103 98 94 91 87 83 80 77 78 88 87 86 89 89 92 94 94 96 100 104 105 111 110 108 113 114 118 119 119 118 120 116 113 110 108 111
101 97 93 90 85 82 79 76 74 71 69 77 83 80 81 84 86 89 93 96 99 104 105 113 100 108 111 109 109 115 116 117 121 124 120 117 113 115
91 88 86 83 81 77 73 69 65 63 61 70 74 74 72 76 77 79 83 88 94 102 105 109 102 107 102 104 106 105 111 113 120 128 127 124 122 120
83 80 78 75 73 70 67 64 60 56 55 61 67 67 65 67 70 71 74 79 83 90 95 100 102 108 106 104 100 103 109 107 115 129 132 130 129 126
75 72 69 66 65 64 61 59 58 54 50 51 59 60 58 59 61 65 68 73 77 80 83 91 94 101 105 100 103 105 107 108 114 121 131 134 134 134
69 66 62 59 58 58 58 57 55 53 49 47 51 55 54 54 56 59 62 66 69 73 77 81 84 88 94 99 105 107 103 103 112 117 127 137 139 138
67 63 59 57 55 54 53 52 50 48 47 45 46 49 51 51 49 52 56 60 64 66 70 74 79 79 82 90 99 106 105 100 104 112 120 130 139 142
64 61 58 55 52 49 47 45 46 44 42 40 42 46 47 47 46 48 53 56 59 60 63 67 71 75 80 84 90 100 103 103 106 111 117 124 134 141
58 55 54 51 47 45 43 41 43 42 41 38 42 44 43 44 44 46 47 51 55 56 59 63 66 73 78 82 87 92 99 103 103 110 114 120 128 138
54 52 51 51 47 44 42 40 40 40 40 39 40 39 40 39 42 42 43 47 51 51 53 58 61 68 73 78 82 84 90 99 103 106 112 116 122 130
49 46 45 44 41 39 39 37 35 36 35 34 34 34 36 36 38 39 38 42 44 45 49 57 57 62 67 73 78 80 86 93 95 97 105 109 113 121
46 43 41 40 39 36 34 33 31 30 29 29 30 31 33 34 35 34 37 37 40 42 48 54 54 57 63 67 72 76 79 83 88 91 97 104 108 109
44 41 38 36 33 31 29 27 27 25 25 25 26 28 29 30 30 32 33 36 38 41 43 48 52 55 57 60 66 69 73 78 82 84 87 93 99 103
41 37 35 32 30 28 27 25 24 22 22 22 23 25 25 27 28 30 32 34 36 38 40 44 47 49 53 55 58 61 67 72 76 80 82 86 90 95
39 36 32 29 27 25 23 21 21 21 21 21 21 22 24 24 25 28 30 32 34 37 38 40 43 45 49 52 54 58 61 65 71 75 76 78 83 86
35 32 29 27 24 22 20 19 19 19 19 19 20 21 22 23 25 27 28 30 32 35 36 39 41 43 46 49 51 55 58 61 65 68 70 73 76 79
33 30 27 24 22 20 19 19 18 17 18 18 19 20 22 23 24 25 28 29 31 32 33 35 37 39 41 44 47 51 54 57 60 61 65 68 69 70
32 28 25 23 20 20 19 18 18 18 18 18 19 20 21 22 24 25 27 28 30 32 33 34 36 38 40 42 44 46 47 50 53 55 59 59 61 64
28 26 23 21 20 19 19 18 18 18 18 18 19 20 21 22 24 25 26 28 30 31 33 34 35 37 39 41 42 44 46 47 49 49 52 55 55 58
28 25 22 21 20 19 19 19 20 20 20 20 20 21 22 23 24 26 26 27 28 30 31 32 34 35 37 39 40 41 41 41 44 46 48 51 53 54
28 25 23 21 20 20 20 21 21 22 22 22 22 23 24 25 25 26 27 28 28 29 30 32 34 35 36 38 39 39 38 38 40 42 43 45 47 52
27 25 23 22 20 20 21 22 23 23 24 25 25 26 26 27 27 28 29 29 29 30 31 31 33 34 35 36 37 36 36 34 37 37 39 41 43 47
26 24 23 21 21 20 22 23 24 25 25 26 27 28 28 29 30 30 31 31 31 31 32 32 33 34 34 34 35 34 34 34 33 36 37 38 41 44

GFSNE_250_spd_042.txt.gz
Wind_Speed
120 117 114 109 103 97 90 85 81 79 82 85 87 89 87 84 85 87 89 91 93 97 100 102 105 104 106 109 114 121 125 113 119 119 114 112 107 102
112 106 102 97 93 89 83 79 75 72 70 76 80 79 78 76 76 77 81 81 84 89 92 95 98 103 104 108 111 115 119 114 121 121 121 118 115 110
97 93 91 88 85 82 78 75 72 68 65 69 72 76 72 69 69 69 71 73 77 80 85 89 92 96 101 104 109 114 116 113 117 118 119 122 123 119
89 85 82 79 77 75 73 72 68 65 60 59 68 69 70 67 65 64 63 67 71 75 79 83 87 92 97 100 104 110 112 112 110 114 115 118 121 124
81 78 75 72 71 69 66 63 62 60 57 54 60 62 64 64 62 61 59 60 65 70 75 79 82 87 92 96 99 103 105 105 107 111 111 118 121 126
75 72 69 67 66 64 62 60 57 57 54 52 54 57 57 60 58 58 56 56 60 66 69 73 77 81 86 93 96 98 100 101 104 103 105 111 116 121
69 66 65 63 61 59 58 57 54 52 50 49 50 49 52 54 53 53 55 56 59 61 66 67 69 73 80 86 91 96 97 97 101 103 104 105 111 114
66 63 61 60 58 57 54 52 51 50 48 47 46 44 45 48 46 48 51 54 58 56 60 62 64 68 74 80 84 90 94 94 97 100 100 102 106 109
62 61 62 59 56 53 51 47 44 44 46 45 44 39 39 41 43 45 46 48 55 53 58 59 60 64 69 73 77 82 87 91 93 98 101 99 100 104
59 58 56 55 52 50 48 45 41 40 40 41 40 38 35 37 40 42 43 44 48 47 54 57 58 59 63 68 72 76 81 85 89 92 95 97 98 102
54 51 51 49 47 45 44 42 39 36 34 33 33 33 33 33 35 38 39 41 42 42 49 50 53 56 59 63 66 70 74 78 82 85 89 93 95 96
53 50 48 46 43 41 39 39 36 33 31 28 26 26 26 28 30 33 37 38 37 39 43 39 45 50 52 56 61 64 68 73 77 81 83 86 88 87
53 52 48 44 40 38 35 34 32 29 27 26 24 24 23 23 26 29 30 31 34 37 38 37 43 45 46 49 54 62 65 67 71 74 77 81 84 85
52 50 46 41 37 35 33 30 28 25 24 23 22 22 22 23 24 26 28 31 34 34 32 36 40 41 42 46 51 56 60 64 65 69 72 74 78 79
48 46 43 38 34 32 30 27 24 21 20 19 18 19 20 21 22 23 25 27 28 29 32 34 36 38 40 42 44 47 51 55 58 61 65 68 70 73
42 41 39 35 32 30 28 24 22 19 17 16 16 17 17 18 19 21 23 24 24 25 28 31 33 35 36 38 41 44 47 50 53 56 59 62 65 68
39 37 36 34 31 28 27 24 20 18 17 16 15 15 16 17 18 20 21 22 22 23 26 28 29 31 33 35 38 40 43 45 48 50 53 56 59 63
39 36 35 33 30 27 25 23 20 17 16 16 15 15 15 16 18 19 19 21 21 22 23 25 27 29 31 33 35 37 39 41 44 47 50 51 54 57
38 35 33 32 29 26 24 23 20 18 16 16 15 14 15 16 17 18 19 21 22 23 24 24 26 27 29 31 34 36 37 39 41 43 46 49 52 54
38 35 32 31 29 26 24 22 21 19 17 16 16 16 16 17 17 18 19 20 21 22 23 24 25 27 28 29 31 33 36 38 40 42 43 45 47 49
37 34 32 30 28 25 23 22 20 19 19 18 18 18 18 18 19 20 20 21 22 23 25 25 26 27 29 30 31 33 35 36 38 41 42 43 45 46
36 34 31 29 27 26 24 22 21 20 19 20 20 21 21 21 21 22 22 23 24 24 25 26 27 28 29 29 30 32 34 36 38 39 40 42 44 46
34 34 32 30 28 26 25 23 22 21 21 20 22 22 23 23 24 24 25 25 26 27 28 28 28 29 30 30 31 32 33 35 35 36 36 39 41 43

GFSNE_250_spd_045.txt.gz
Wind_Speed
113 111 109 106 103 100 95 91 86 83 84 84 86 87 85 82 80 79 81 85 88 91 95 97 101 104 107 110 113 121 126 130 132 128 122 118 116 111
104 101 97 93 90 87 84 82 77 74 71 76 76 78 77 75 72 70 72 75 79 84 87 90 93 97 101 105 108 112 117 126 131 129 124 125 122 117
93 90 87 83 81 78 76 74 72 69 65 71 71 72 71 69 68 66 67 68 70 75 79 83 86 89 93 97 101 105 112 120 122 123 125 128 121 122
86 82 79 77 74 72 71 70 67 65 62 60 71 68 67 65 65 63 64 62 63 68 72 76 80 83 87 91 95 99 106 115 119 121 122 127 127 126
81 78 74 73 71 69 67 66 63 61 59 54 63 62 64 62 61 61 61 60 60 64 68 71 73 76 81 85 89 93 101 109 113 119 119 127 118 121
75 73 71 68 67 67 64 61 59 57 56 55 57 58 58 58 54 56 57 56 58 61 65 67 68 70 74 79 84 88 94 102 106 111 115 118 117 122
72 70 68 66 64 63 60 59 56 53 52 51 52 52 52 53 51 50 53 54 55 58 61 63 63 65 69 74 78 83 88 95 99 101 105 110 114 119
71 68 65 63 61 58 54 50 47 48 49 48 46 44 45 47 46 46 50 50 52 52 56 59 60 60 63 68 72 75 81 87 91 93 95 102 111 115
68 65 63 60 57 54 52 49 47 45 44 42 41 39 40 40 42 41 44 47 48 46 52 54 56 57 58 61 65 69 74 81 85 87 89 96 105 114
64 60 58 56 54 52 51 49 46 43 41 39 38 37 36 36 36 35 38 42 42 40 47 49 53 54 55 57 61 65 70 75 80 82 85 92 98 105
61 58 55 54 51 49 47 45 43 41 38 36 34 33 32 32 32 32 35 36 36 37 44 43 46 49 52 54 57 61 65 69 73 77 81 86 91 97
59 58 54 50 47 45 43 41 38 37 34 32 31 28 28 27 28 29 30 33 36 39 42 38 42 43 45 48 52 56 60 64 68 72 76 80 85 91
58 54 49 45 42 39 38 36 35 33 32 29 28 26 25 24 24 25 27 30 33 34 33 35 37 38 41 45 49 53 56 58 62 65 70 75 79 84
52 49 47 43 39 36 34 33 32 31 28 27 25 24 23 23 22 23 24 25 27 29 33 36 36 38 40 43 47 51 53 55 57 61 64 68 73 77
48 46 44 41 38 34 31 30 29 27 25 24 23 22 22 21 20 20 21 21 23 26 30 33 35 36 38 41 44 46 48 51 53 56 59 63 66 70
46 42 40 39 36 32 31 29 27 25 23 22 21 20 20 19 19 19 19 21 23 25 27 30 32 33 35 36 38 41 45 48 50 51 54 58 61 65
44 42 39 37 36 33 29 27 25 23 21 20 20 20 20 18 18 18 19 20 21 23 25 27 29 31 33 35 37 40 42 45 47 49 51 55 59 61
44 41 38 36 34 31 29 27 24 22 20 19 20 20 20 19 18 17 18 19 20 22 24 26 27 28 31 33 34 36 39 41 43 45 48 51 55 58
41 40 38 35 33 30 27 25 23 21 20 19 19 19 20 19 18 18 18 19 20 22 23 25 26 28 30 31 33 35 36 38 40 43 45 48 52 56
39 37 37 34 32 30 26 24 23 21 19 18 19 19 20 20 19 18 19 19 19 21 22 24 26 27 29 30 32 33 35 37 39 40 43 45 48 52
38 36 36 35 31 28 26 24 22 21 20 18 19 20 20 21 20 20 20 20 21 22 23 25 25 26 27 28 30 31 33 35 37 39 41 44 46 48
38 36 34 33 32 28 26 24 22 21 20 19 19 20 21 22 23 22 22 22 23 24 24 25 26 26 28 29 31 32 34 35 36 38 40 42 45 47
38 36 34 32 31 30 27 25 22 21 21 20 20 21 22 24 24 25 25 25 25 26 26 27 28 30 32 33 34 35 36 37 37 38 40 42 44 45

GFSNE_250_spd_048.txt.gz
Wind_Speed
115 113 110 107 104 101 99 97 93 89 91 91 87 85 81 79 78 78 77 79 84 90 95 99 103 107 113 120 126 129 132 133 132 131 126 126 123 119
107 105 102 98 95 92 89 87 85 81 76 83 80 76 73 70 68 70 72 73 77 82 85 89 93 98 104 111 117 122 125 130 136 137 134 131 129 126
100 97 94 90 87 83 80 77 75 72 65 73 73 71 68 64 62 63 66 67 70 75 78 82 86 90 94 99 105 110 117 121 127 134 138 135 131 134
92 88 85 81 77 74 72 70 68 66 61 61 70 66 65 63 61 58 60 63 65 67 71 78 80 83 86 91 96 101 106 112 119 125 131 135 132 131
84 82 78 75 72 71 69 65 63 62 59 56 66 63 64 62 60 57 56 59 61 63 66 70 75 78 79 83 88 94 98 103 108 119 124 128 128 131
79 76 73 71 68 67 66 63 60 58 57 55 56 55 57 58 58 57 55 55 57 60 63 66 69 72 74 77 81 86 91 95 103 112 122 126 126 127
75 72 68 66 64 63 61 60 58 56 54 53 52 51 49 50 51 52 53 53 55 55 59 63 63 66 68 72 76 79 83 87 95 104 114 120 125 130
71 68 65 63 60 60 59 56 55 53 52 51 50 47 45 44 44 46 48 48 50 49 53 59 59 63 63 66 69 74 77 81 87 97 103 113 126 130
68 66 63 60 59 59 58 56 53 49 49 48 47 43 42 39 40 42 41 42 45 44 49 53 56 57 57 59 64 69 71 74 80 88 97 107 117 120
65 62 60 58 58 56 54 52 48 45 43 42 41 40 38 35 34 36 36 36 38 41 45 49 49 50 52 56 61 65 69 71 75 81 88 97 103 105
60 59 58 57 53 50 49 48 44 40 40 39 37 35 33 31 30 30 31 31 32 38 43 44 44 45 49 52 56 61 65 66 69 75 81 85 90 94
58 57 57 52 48 45 46 45 41 36 35 34 34 32 29 27 26 25 26 27 27 32 37 39 41 44 46 47 50 55 61 62 65 69 74 78 82 87
57 57 54 48 44 43 42 41 38 35 33 32 30 28 25 23 21 22 22 23 24 26 29 32 39 40 40 42 45 49 55 58 60 65 69 73 76 81
55 55 51 47 43 42 40 37 35 33 32 30 27 25 22 20 19 19 20 21 21 24 26 28 30 31 34 38 42 47 51 55 58 60 63 66 70 76
53 52 48 46 44 39 38 35 33 31 29 27 25 23 20 19 18 17 18 19 20 21 23 26 30 34 37 39 42 45 48 51 54 56 58 62 64 69
51 49 45 43 43 39 35 34 32 30 28 25 23 21 19 18 17 17 17 18 19 21 22 25 28 31 34 36 38 39 43 48 51 53 55 58 61 65
49 46 42 40 38 39 37 34 32 29 26 24 22 20 18 18 17 17 17 16 17 19 20 23 25 28 31 33 36 38 42 45 49 51 53 54 57 62
47 44 41 38 36 35 35 33 30 29 25 23 21 19 17 17 17 17 17 17 18 19 21 23 26 29 32 34 36 37 39 40 43 46 49 51 54 57
45 42 39 36 35 35 33 30 29 27 25 22 20 19 17 17 17 16 17 18 19 19 21 23 25 28 30 32 35 37 38 40 41 43 45 47 50 54
43 41 38 35 34 34 32 30 27 26 24 22 20 18 17 17 17 16 18 18 19 19 20 22 25 27 29 31 32 34 36 38 39 40 43 45 48 51
41 40 37 35 33 32 32 29 27 24 24 22 20 18 17 17 18 18 18 19 20 21 21 23 25 26 27 28 30 32 34 36 37 39 41 43 46 49
39 38 36 35 33 30 30 29 26 24 23 22 21 19 18 18 19 19 19 19 21 21 22 24 25 27 28 29 30 32 33 34 35 37 39 41 43 46
37 36 34 33 31 29 28 28 26 25 23 22 22 20 19 19 20 21 22 22 22 23 24 25 26 27 29 30 31 32 34 35 36 37 39 41 42 44

GFSNE_250_spd_051.txt.gz
Wind_Speed
105 109 111 113 109 107 105 102 97 90 89 91 88 87 84 80 78 77 82 80 81 83 85 89 94 97 103 110 116 127 123 121 130 131 129 124 120 117
110 112 109 107 105 100 97 93 90 85 77 83 84 77 75 73 70 69 74 76 77 77 78 81 84 88 93 100 106 111 120 121 124 132 132 131 128 123
111 104 104 101 97 93 89 86 82 79 72 72 76 74 70 69 65 64 67 70 74 73 74 76 78 82 88 92 98 106 111 119 122 128 135 136 134 131
101 100 97 93 89 85 82 78 75 73 69 63 73 68 66 66 64 61 61 63 68 70 70 73 76 79 80 83 89 98 105 113 118 123 131 134 137 137
96 93 89 85 81 78 74 73 70 68 66 62 66 64 62 61 59 58 58 59 61 65 67 69 73 75 76 81 86 91 98 106 112 118 123 129 136 138
90 87 81 77 74 71 70 68 65 64 62 59 58 59 55 54 53 54 53 53 56 58 60 64 67 70 74 77 78 83 90 96 105 114 119 124 131 135
84 79 74 72 69 67 65 63 60 59 58 57 55 55 54 51 50 51 51 51 52 53 54 59 62 64 68 71 74 78 82 87 95 104 112 121 127 131
77 74 70 66 66 63 63 59 56 54 53 51 50 48 48 45 45 46 47 49 50 47 48 52 58 62 62 63 67 72 77 82 88 95 101 112 122 129
72 69 66 63 63 60 57 56 53 51 49 47 47 44 42 39 39 40 41 45 45 42 41 48 52 58 58 60 61 69 73 77 82 86 92 103 112 122
69 66 63 61 59 56 54 52 49 48 46 44 43 40 36 36 35 35 36 38 40 39 38 45 47 53 55 55 59 64 67 72 76 80 85 92 102 111
65 63 60 57 54 52 50 49 47 46 43 41 39 36 33 33 32 32 33 34 34 34 37 41 43 46 49 51 55 57 62 68 72 75 80 85 92 100
61 58 58 54 52 49 47 44 44 42 40 37 36 34 32 30 29 28 28 28 29 30 33 35 39 40 42 45 48 51 57 63 68 71 75 81 85 92
59 56 53 53 51 48 45 43 40 38 37 35 32 30 29 28 25 24 24 24 24 25 28 30 34 36 36 39 43 49 55 60 64 67 71 76 81 86
56 54 51 50 48 46 43 41 38 36 34 32 30 29 27 25 22 20 20 20 20 22 23 25 27 29 31 34 39 45 50 55 59 62 67 72 77 80
55 52 49 48 46 45 42 38 37 35 33 30 28 27 25 23 20 18 17 16 17 19 20 21 25 28 28 29 33 41 46 51 54 58 62 67 71 76
53 49 48 46 45 43 40 38 34 33 31 29 27 25 23 21 19 17 15 14 15 17 19 20 22 26 31 36 39 41 44 47 51 55 59 62 66 69
50 48 46 45 43 41 38 36 35 32 30 28 26 24 21 20 18 16 14 13 13 15 17 20 21 23 27 31 35 37 41 44 47 52 56 59 62 64
48 46 44 43 41 39 36 34 34 31 28 27 25 23 21 19 18 16 14 14 13 14 16 19 21 23 25 28 31 34 37 41 44 49 52 56 59 60
46 45 43 42 40 37 35 33 32 30 28 26 24 22 20 18 17 15 15 14 14 15 16 18 20 22 24 26 29 31 33 36 39 43 47 51 54 56
44 43 42 40 39 36 33 32 31 29 27 25 23 22 20 18 17 16 15 15 14 15 17 19 20 21 22 25 27 29 31 33 36 39 42 45 48 52
43 42 41 39 37 34 32 30 29 28 27 24 22 21 19 18 17 16 17 16 15 15 17 19 20 21 23 24 26 27 29 31 33 36 38 41 44 48
42 42 41 39 36 34 31 29 27 27 25 25 23 21 20 18 18 18 17 18 17 17 18 19 20 22 24 25 26 27 28 30 32 34 36 39 41 44
42 41 40 39 36 33 31 29 27 27 26 25 23 21 20 19 19 19 19 19 20 20 19 20 21 22 23 24 25 26 27 29 31 33 35 37 40 42

GFSNE_250_spd_054.txt.gz
Wind_Speed
110 111 109 111 111 111 110 104 99 95 94 92 91 88 85 80 78 75 76 78 79 79 81 85 86 89 97 102 108 118 126 129 134 136 134 129 124 118
109 108 111 112 110 104 106 104 99 92 83 83 84 83 78 74 73 70 73 73 74 77 77 76 77 80 87 93 98 106 114 123 127 131 135 135 133 129
109 111 110 108 105 103 101 98 93 88 78 75 77 77 72 70 69 67 68 68 71 75 76 74 70 74 79 84 90 96 104 111 120 124 130 135 136 134
111 110 106 105 102 98 94 89 85 80 74 70 73 72 69 67 65 64 64 64 66 70 72 71 69 71 74 77 83 91 96 102 108 117 124 126 132 133
109 105 104 99 94 90 85 81 76 73 71 66 67 68 66 64 62 60 60 61 61 64 66 68 67 69 71 73 76 82 89 96 100 106 114 120 128 132
106 103 97 91 86 83 77 74 69 67 67 64 64 63 63 60 56 56 57 57 59 59 60 61 63 67 70 72 74 74 82 89 95 99 104 112 122 129
100 95 89 81 79 75 71 68 64 62 63 62 61 60 57 51 49 50 51 52 53 56 56 58 57 59 66 69 70 73 76 81 87 95 100 105 114 125
90 85 80 74 73 70 68 64 61 59 59 58 56 52 48 44 46 46 46 47 50 46 49 54 50 53 58 63 65 70 74 77 81 86 94 100 107 117
83 78 75 70 70 65 62 59 59 57 56 55 51 45 45 42 42 40 39 41 42 43 43 48 44 51 54 57 60 66 71 74 75 79 86 93 99 107
77 74 71 65 65 61 58 57 56 55 54 49 48 46 43 41 39 37 36 36 37 39 41 42 40 46 49 52 55 61 68 68 70 74 79 85 91 98
73 70 68 62 61 58 56 55 53 52 49 45 45 43 39 38 37 33 34 34 34 36 38 37 37 41 44 47 49 53 60 63 66 71 75 79 84 92
70 66 65 60 58 55 54 52 50 49 45 41 39 40 38 35 32 31 31 32 32 32 33 33 35 36 39 41 43 48 52 58 63 68 72 74 80 87
66 62 60 59 55 53 51 49 48 47 42 38 37 36 35 32 30 28 28 27 28 28 29 29 30 30 33 35 38 43 47 53 60 63 67 70 75 82
64 60 57 55 54 52 48 46 46 44 40 36 35 34 32 29 27 26 25 24 25 24 25 26 27 28 31 31 33 39 44 49 56 60 63 68 71 77
62 58 55 52 51 49 46 43 42 41 37 35 35 33 29 27 25 24 22 21 22 22 22 23 25 26 27 30 33 36 40 46 53 58 61 65 70 74
59 56 52 51 49 46 43 41 40 39 35 32 32 31 28 25 23 21 19 19 20 20 20 21 22 23 24 29 34 37 40 43 49 53 56 61 66 71
55 52 50 49 47 43 41 40 39 37 34 31 30 29 26 24 22 20 17 17 18 18 19 20 21 22 24 28 33 37 40 43 45 48 51 56 62 67
54 51 49 47 44 42 40 39 37 35 33 31 29 27 25 23 21 18 17 16 17 17 17 18 20 21 24 27 29 32 36 39 41 44 48 52 57 62
52 50 48 45 43 41 40 38 36 34 32 30 29 26 24 22 20 18 16 16 17 17 17 17 18 20 22 26 28 30 32 35 37 40 43 48 53 57
50 47 45 43 41 39 38 37 35 32 31 29 27 26 23 21 20 17 16 16 16 17 17 18 19 20 22 24 27 28 30 32 34 36 39 43 47 52
48 45 43 41 40 38 37 35 33 31 30 27 26 24 22 21 20 17 16 16 16 17 18 18 18 20 22 23 26 28 30 32 33 35 36 39 43 47
45 44 42 40 38 37 36 33 32 30 28 27 25 25 22 20 19 18 16 17 17 18 18 18 18 19 21 23 25 26 28 30 32 33 35 37 40 43
43 42 41 40 38 36 34 32 30 29 28 26 25 24 23 20 19 18 18 17 18 18 19 19 20 20 21 22 24 25 27 28 30 32 34 36 38 40

GFSNE_250_spd_057.txt.gz
Wind_Speed
103 106 107 108 109 109 110 110 104 93 95 95 91 89 85 80 75 72 71 71 70 73 74 76 78 83 90 94 100 106 113 117 120 125 130 127 122 122
108 111 109 108 110 110 108 104 100 95 92 88 87 84 78 73 71 69 67 65 66 67 68 71 72 76 80 85 91 99 107 112 119 123 127 130 130 125
111 108 109 109 109 107 104 101 98 92 85 82 80 78 73 68 68 66 64 63 64 64 65 67 70 70 73 77 83 91 100 105 112 119 124 130 133 133
110 110 109 108 106 103 99 96 91 86 79 76 77 71 68 65 63 63 62 60 60 62 63 64 66 68 67 71 75 83 91 98 103 112 121 125 132 135
111 109 108 107 104 99 92 88 83 79 76 71 70 67 65 63 61 58 58 57 57 57 59 60 62 64 66 68 72 78 83 91 96 102 111 120 129 135
110 108 107 105 99 93 87 82 78 74 70 68 66 64 61 59 56 55 56 55 56 55 55 58 59 61 62 66 70 74 79 84 89 96 103 110 121 130
107 104 101 95 90 86 81 77 73 69 67 65 62 60 58 56 55 53 51 53 51 47 51 56 53 57 59 62 66 69 73 79 83 88 97 102 109 120
105 99 93 88 83 79 76 72 67 64 63 60 57 56 55 53 53 49 47 50 52 41 50 51 49 54 56 59 62 65 69 73 79 84 88 95 101 108
100 94 87 82 76 74 70 66 64 61 57 56 56 53 54 51 50 46 44 44 43 41 45 49 44 47 49 55 58 62 64 68 72 78 82 86 93 99
94 87 81 77 71 69 66 62 60 57 53 51 51 51 50 49 47 45 42 40 40 40 44 42 39 41 44 48 53 59 62 62 66 70 75 80 86 92
85 79 76 71 67 65 63 61 56 53 51 49 48 49 48 44 43 42 41 41 36 38 40 40 38 38 41 43 48 54 58 58 60 65 70 75 81 86
80 74 71 67 64 61 59 57 54 51 49 46 45 46 45 41 40 40 38 38 37 35 37 37 37 36 37 40 43 48 53 54 57 62 66 70 75 81
75 70 67 63 60 57 55 53 51 48 47 45 44 43 40 38 36 36 36 35 34 34 34 33 32 33 34 34 37 43 48 50 51 56 61 66 70 76
71 67 63 61 57 54 51 49 48 47 45 43 42 41 38 35 34 34 33 33 31 32 31 28 28 28 28 29 33 38 42 43 46 52 57 62 66 71
67 64 60 57 55 52 49 48 45 43 42 40 39 39 37 34 33 31 30 31 28 29 27 26 26 26 25 27 29 33 37 42 46 51 56 60 63 67
62 60 58 55 53 50 48 46 43 41 39 38 37 36 34 32 31 29 28 28 27 26 24 24 24 24 25 26 28 31 35 40 45 49 54 58 61 64
61 58 55 53 51 49 46 43 40 38 37 36 34 33 31 30 28 27 26 25 25 23 23 23 23 23 24 25 26 29 32 37 42 46 49 53 57 61
61 58 55 50 47 45 43 40 38 37 36 34 32 30 29 27 26 25 24 23 22 22 21 22 22 22 23 24 25 28 30 34 38 42 45 48 53 57
57 55 53 49 45 43 41 38 36 35 34 33 30 28 27 25 24 23 22 21 21 20 20 20 21 21 22 23 24 25 28 32 35 39 43 46 50 54
54 51 48 47 43 41 40 37 36 35 33 31 29 26 25 24 23 23 21 20 19 19 19 20 21 21 22 22 23 25 27 30 33 36 39 43 46 50
51 49 47 45 41 39 37 36 35 34 32 30 28 26 24 23 22 22 21 19 18 18 19 19 21 21 22 22 24 25 27 29 31 34 37 40 43 46
49 48 45 42 40 37 36 34 32 31 30 28 28 26 23 23 22 21 21 19 18 18 19 20 21 22 22 22 24 25 27 29 31 34 37 39 41 43
45 43 42 41 39 36 34 33 31 30 28 27 26 25 23 23 23 21 21 20 18 18 18 20 21 22 23 24 25 26 27 28 30 33 35 37 38 41

GFSNE_250_spd_060.txt.gz
Wind_Speed
97 102 107 110 110 109 110 111 111 105 102 101 99 95 92 86 81 76 72 71 70 68 69 72 75 79 83 85 89 90 93 98 106 111 116 122 123 122
102 108 109 110 110 110 111 111 107 101 95 92 91 87 82 77 73 69 66 65 64 62 62 65 67 69 73 80 84 88 92 95 101 110 116 122 126 126
109 109 109 110 111 111 111 107 102 97 90 88 85 80 76 71 68 65 63 61 60 59 59 61 62 63 66 72 78 81 86 90 98 106 115 121 126 129
109 111 112 113 113 112 109 104 98 92 85 83 81 75 71 66 64 62 59 57 56 56 56 57 59 61 63 67 72 77 80 85 92 101 109 115 125 129
111 111 112 114 114 108 103 99 93 87 80 78 76 71 67 63 62 59 57 55 55 53 53 54 57 61 63 65 68 72 77 81 86 94 102 111 120 129
112 113 112 112 108 103 100 94 87 82 77 74 68 66 63 60 58 57 56 53 52 49 52 55 54 55 58 61 64 69 73 77 82 88 96 103 112 122
112 111 109 107 104 98 92 86 81 77 73 69 65 62 59 56 55 53 52 53 49 46 53 49 49 52 52 55 58 64 69 75 80 84 91 98 104 113
111 109 106 103 95 87 83 79 75 71 68 65 61 59 56 53 52 51 50 49 48 45 49 44 47 47 49 50 53 57 64 70 74 79 85 91 97 104
109 105 100 96 87 82 77 72 69 65 63 61 59 55 53 51 50 49 46 45 44 45 45 38 44 45 45 46 49 53 58 64 69 73 79 83 90 97
107 101 94 87 82 76 71 68 65 60 58 56 55 53 50 49 48 47 45 43 40 40 45 37 39 41 42 42 45 50 54 59 63 67 72 78 83 90
101 92 86 80 76 72 67 65 61 57 54 51 49 48 48 47 46 45 43 42 39 38 40 38 36 35 36 39 41 44 50 54 57 61 66 72 78 84
92 86 80 75 71 67 64 62 58 54 52 49 46 45 45 44 43 42 42 40 38 37 39 36 35 32 31 35 39 43 45 49 52 56 61 66 73 79
86 80 75 70 66 62 60 59 56 54 51 48 46 43 41 41 40 40 39 38 36 36 35 34 32 32 31 32 35 39 42 46 49 51 56 61 65 72
79 74 70 66 62 59 58 57 54 51 49 46 44 41 40 38 37 37 35 34 34 33 34 31 28 30 29 31 32 35 38 41 46 49 51 56 60 65
74 69 64 62 61 59 56 54 51 48 46 44 42 40 39 38 35 34 32 32 32 31 31 29 27 27 27 27 28 30 33 36 41 45 48 52 56 61
70 64 60 61 59 57 53 50 47 45 43 42 40 39 37 36 35 32 31 30 30 29 28 26 25 25 24 24 24 25 28 32 36 40 43 48 53 58
67 63 60 58 56 53 51 48 45 43 41 40 38 37 36 34 33 30 29 28 28 27 26 24 23 23 22 22 21 22 25 28 31 35 40 45 51 55
65 62 59 57 54 51 48 45 43 41 39 38 37 36 34 32 30 29 27 25 25 25 24 22 21 21 20 20 20 21 24 26 30 33 37 42 47 53
62 60 57 55 53 49 47 43 40 40 37 37 35 34 32 31 28 26 25 24 23 23 22 21 20 20 19 18 19 21 23 25 28 31 35 39 44 48
59 57 54 52 50 47 45 42 39 38 36 35 34 32 30 28 27 25 24 23 22 21 20 20 20 19 19 18 19 21 22 23 26 28 32 37 41 45
56 54 51 48 47 45 42 40 38 36 35 33 32 30 29 27 26 25 23 22 21 20 19 20 19 19 19 18 19 21 23 23 25 27 30 34 38 42
53 50 48 47 44 42 40 39 37 35 33 32 31 28 27 26 25 24 22 21 21 19 19 20 20 19 19 18 19 21 23 24 26 28 31 33 36 39
50 48 46 44 42 40 38 38 35 33 33 31 30 28 26 26 24 23 22 21 21 19 19 20 20 20 19 19 20 22 23 24 26 27 30 33 36 39

GFSNE_250_spd_063.txt.gz
Wind_Speed
102 101 101 102 108 113 115 113 113 111 109 110 109 107 101 97 92 86 81 77 74 72 69 68 69 71 74 78 81 86 90 90 92 101 111 116 118 119
106 102 103 109 113 114 113 113 114 112 109 108 103 97 93 87 82 76 73 70 67 65 62 62 63 66 69 73 76 79 84 87 90 94 103 115 119 123
106 104 109 113 113 113 114 113 111 109 104 100 95 88 83 79 74 72 68 64 62 61 57 56 57 60 63 67 72 77 80 82 86 91 98 107 119 125
107 110 113 112 112 114 114 110 105 101 95 92 89 82 79 74 70 68 63 58 58 56 55 54 56 57 60 63 66 70 74 78 82 87 94 100 111 122
111 112 112 113 114 114 112 105 101 97 89 84 81 78 74 68 66 63 60 56 53 52 54 55 53 52 54 58 62 66 69 74 77 82 89 97 106 115
114 113 114 115 115 112 107 103 97 90 83 80 75 72 67 64 62 60 57 54 51 50 54 51 49 50 51 53 58 62 65 69 74 77 83 92 100 108
115 115 114 113 111 107 102 96 89 84 79 74 69 67 63 61 58 56 55 52 48 49 51 45 48 49 49 52 54 58 62 66 69 74 79 86 93 102
116 115 113 110 106 100 94 88 82 77 73 69 65 62 59 57 55 53 51 49 47 49 50 39 45 45 48 50 51 54 58 62 65 69 75 81 89 96
117 114 110 105 99 93 86 82 75 70 67 64 62 58 56 53 51 49 47 48 46 45 48 38 41 45 44 45 48 49 52 56 61 65 70 76 84 91
114 110 105 98 92 86 80 76 70 66 63 60 59 58 56 53 50 48 47 44 43 41 45 38 39 39 39 41 44 45 47 52 56 60 65 72 78 86
112 106 97 92 87 80 76 71 66 62 60 58 58 56 54 51 49 48 44 42 40 39 41 38 35 36 34 37 40 42 44 48 52 55 59 67 74 79
106 98 91 86 80 75 71 67 63 60 59 57 55 52 50 48 46 45 42 38 39 37 39 35 32 35 30 33 37 39 42 45 48 50 54 60 67 74
98 92 84 79 76 71 67 63 61 59 57 54 50 48 45 45 43 42 41 39 38 37 36 34 31 31 32 28 34 35 38 40 43 46 49 54 59 69
93 86 79 74 71 67 63 61 60 57 54 52 49 46 44 41 40 38 38 37 38 34 34 32 29 28 28 29 28 32 34 37 40 43 45 47 54 63
86 82 74 69 66 65 62 59 57 54 52 50 47 44 42 39 37 35 35 35 35 32 28 30 28 26 25 26 26 27 29 32 36 40 44 45 48 55
82 78 71 67 63 62 61 57 55 52 49 48 46 43 41 39 37 34 33 33 33 29 26 27 25 25 24 22 23 24 25 28 31 36 40 42 43 48
75 72 69 65 62 59 58 55 53 51 47 46 44 42 39 37 36 34 32 31 30 28 25 25 23 24 21 20 21 21 22 25 28 31 35 38 41 45
73 70 66 62 59 57 54 51 49 48 45 43 42 40 38 36 34 33 31 30 28 25 24 23 21 21 20 19 19 19 20 22 25 28 31 34 39 43
70 67 64 60 57 54 51 48 46 45 43 41 40 38 36 35 32 30 30 29 26 23 23 21 20 19 18 18 18 18 18 20 22 26 28 32 37 43
66 62 61 58 54 51 48 46 44 42 42 39 38 36 35 33 31 29 28 27 25 22 22 21 18 18 17 17 17 16 17 19 21 23 27 29 34 39
64 60 57 55 52 49 46 44 42 40 39 37 36 35 33 31 31 29 27 26 24 22 21 20 18 17 15 16 17 16 16 18 20 22 25 29 32 37
62 58 54 51 49 47 44 42 41 39 37 35 33 32 32 30 29 27 26 25 24 22 20 19 18 17 16 17 17 17 17 18 20 23 25 28 31 35
58 55 51 49 46 44 41 40 38 37 36 34 32 31 30 29 27 26 25 24 23 22 20 19 18 17 17 17 18 18 17 18 20 23 25 28 30 33

GFSNE_250_spd_066.txt.gz
Wind_Speed
99 101 103 106 105 108 114 118 119 117 112 112 111 109 105 101 97 94 90 87 83 78 74 71 70 70 71 74 76 77 79 83 90 96 103 109 111 116
103 105 107 105 111 116 117 118 116 115 112 110 107 101 96 93 89 87 82 77 73 69 65 63 62 64 64 68 71 73 75 77 81 88 94 102 112 115
108 108 107 112 116 116 116 114 115 114 110 107 102 96 90 84 80 78 75 72 68 63 58 58 57 57 60 63 67 69 71 73 76 81 88 96 105 116
111 109 114 116 116 116 116 116 113 109 103 100 95 88 82 76 73 71 68 64 62 59 57 57 55 53 54 57 61 64 68 71 73 76 81 89 99 106
110 115 116 116 117 117 116 113 109 104 98 91 86 82 77 72 69 66 64 61 57 55 56 55 53 52 52 55 58 61 64 68 71 74 77 83 92 101
115 118 116 117 117 117 113 109 105 97 91 85 82 77 73 69 65 62 61 56 53 50 54 50 49 51 50 52 54 57 62 66 68 71 75 80 86 93
119 118 117 117 117 114 110 104 96 91 86 81 76 72 69 65 61 58 57 54 49 47 50 43 48 48 46 49 51 54 58 62 64 67 71 75 81 88
118 118 118 118 115 110 105 96 91 85 79 76 72 68 64 60 58 56 54 52 49 46 47 37 47 44 45 46 48 53 56 58 61 64 67 72 77 83
118 117 117 116 111 105 98 91 86 79 74 71 68 62 61 58 58 55 52 49 46 46 47 37 44 41 43 44 49 53 53 54 57 60 64 67 73 79
119 118 116 112 106 100 93 86 81 74 69 66 63 61 59 58 56 53 49 45 42 42 47 39 41 39 41 42 46 51 49 50 54 58 62 65 68 75
120 117 113 106 100 94 87 81 77 69 66 63 61 60 58 55 53 51 47 44 41 38 43 36 37 37 37 39 45 48 46 48 50 52 56 61 65 69
116 114 108 99 96 90 82 77 73 66 63 61 59 58 56 53 50 48 47 43 39 35 39 33 36 37 33 35 40 41 43 46 48 50 52 55 60 65
113 109 102 95 90 85 78 73 70 65 62 60 57 55 53 51 48 46 44 43 38 33 36 31 31 33 33 30 33 38 40 43 45 46 47 49 55 61
106 103 98 91 84 79 75 71 68 63 60 58 55 53 51 48 45 42 41 40 39 35 32 35 29 30 29 31 32 33 37 40 41 41 43 46 50 55
100 99 94 86 78 75 73 69 65 61 59 57 53 50 48 46 42 40 38 38 36 35 32 33 30 27 28 27 30 31 32 35 38 39 41 43 44 49
94 94 88 81 76 73 70 65 62 59 56 54 51 48 46 44 40 38 35 35 33 33 31 28 27 26 26 25 27 28 29 31 34 36 39 40 41 45
85 87 83 79 73 67 65 62 58 56 54 51 48 45 43 42 39 37 34 32 31 29 30 26 24 25 24 24 25 25 25 28 30 32 35 37 39 42
82 78 78 74 68 63 61 58 55 52 51 48 46 43 40 39 36 35 33 31 29 27 26 24 23 23 23 22 22 23 23 25 27 29 31 33 36 39
80 76 74 70 66 60 57 56 52 49 48 45 44 40 38 37 34 33 32 30 28 25 24 23 22 21 21 20 21 21 21 22 23 25 27 29 31 36
77 73 70 67 63 58 54 51 48 45 44 43 41 38 36 35 33 31 30 29 27 24 22 22 21 19 20 20 20 19 20 21 22 24 26 28 30 34
74 70 67 63 59 55 51 48 45 42 41 40 38 35 33 32 31 30 28 27 25 23 21 20 20 19 19 19 19 18 19 20 21 22 25 27 29 32
70 66 64 58 55 53 49 45 42 40 39 38 36 33 31 31 30 29 27 25 23 22 20 19 19 19 19 18 18 17 18 19 20 22 24 26 28 31
64 61 58 56 52 50 46 43 41 38 37 36 34 32 30 29 28 27 26 24 22 21 20 18 19 19 18 18 18 18 18 20 20 21 22 24 27 30

GFSNE_250_spd_069.txt.gz
Wind_Speed
90 95 100 101 105 109 114 114 115 113 118 119 116 113 111 106 101 97 93 89 84 78 76 75 75 76 76 77 78 79 78 79 82 86 90 97 107 112
97 101 105 106 110 115 117 117 118 120 119 117 114 110 103 96 92 88 85 81 76 72 69 67 66 67 69 71 72 73 73 73 74 77 82 88 95 106
102 106 108 110 116 117 119 119 121 121 119 115 110 104 97 88 83 80 76 73 70 67 63 61 60 60 60 62 65 67 70 71 72 72 74 80 88 98
107 108 112 116 117 120 120 122 122 120 115 109 105 98 89 82 77 73 70 66 63 61 59 59 57 55 54 55 57 62 65 67 69 70 72 75 83 93
109 112 117 118 121 121 122 123 121 117 111 104 98 91 85 78 74 70 66 63 59 57 56 56 53 52 51 52 53 56 58 62 65 67 69 72 77 86
112 117 119 121 121 122 123 122 118 112 106 98 90 86 79 76 71 67 64 58 55 51 54 51 51 51 49 50 51 52 54 59 62 64 65 68 73 80
117 119 121 121 124 124 122 118 114 107 99 90 87 82 77 72 67 63 61 56 52 51 53 46 52 50 47 47 47 50 52 56 58 61 63 65 68 75
118 122 121 124 124 122 118 114 107 99 92 86 84 77 74 67 64 61 58 55 53 51 52 42 50 45 47 44 47 49 51 53 54 57 60 63 67 70
121 122 124 124 123 119 116 109 101 95 88 84 79 73 70 65 63 60 57 54 48 48 51 41 40 41 42 44 46 48 48 49 51 55 58 62 65 68
122 124 124 123 121 116 110 103 97 92 85 80 73 70 67 64 61 58 55 52 47 43 48 46 39 37 40 44 44 47 47 46 51 54 57 59 62 65
123 125 124 120 116 111 103 97 94 87 81 75 71 69 65 62 59 57 54 51 46 40 43 44 40 37 37 41 43 45 43 46 49 52 55 57 60 63
120 122 123 118 111 105 97 92 88 82 78 73 69 65 62 60 57 55 52 49 45 40 38 38 39 40 33 37 40 44 42 45 47 48 51 53 56 60
118 117 117 113 106 99 93 87 82 78 75 70 66 61 58 57 54 51 49 47 43 38 37 36 33 38 35 32 39 43 41 44 45 46 47 48 50 55
119 114 110 106 100 94 89 82 78 74 71 67 62 58 55 53 50 49 45 44 42 39 34 34 33 33 35 34 34 38 40 40 40 42 44 43 45 48
116 110 104 99 94 88 85 77 73 70 67 64 59 55 53 50 47 46 43 41 39 39 35 30 32 31 32 32 33 34 32 36 37 40 40 41 43 45
110 103 98 93 87 83 81 75 70 66 64 61 56 52 49 47 45 43 40 39 36 35 35 29 29 32 31 30 29 30 31 34 34 38 39 39 40 42
101 98 91 88 83 78 75 73 67 62 59 58 53 49 46 44 42 41 37 35 33 30 32 31 26 28 29 28 27 27 29 31 32 33 35 36 37 38
94 89 86 83 78 74 70 67 63 58 54 52 48 45 43 41 39 38 35 33 31 29 27 28 27 26 26 26 26 26 27 28 29 31 32 33 34 35
88 86 82 78 75 70 65 61 57 52 50 48 45 42 39 37 36 35 33 31 29 27 26 26 25 25 25 25 24 24 25 25 26 28 30 31 31 33
86 82 78 75 71 66 61 56 52 50 46 44 41 39 36 35 34 33 30 28 27 25 24 24 23 23 23 24 23 22 23 23 24 26 28 29 30 31
84 79 74 70 66 61 56 53 49 46 44 41 39 37 34 32 32 31 28 26 25 23 23 22 22 21 22 22 21 21 22 23 23 24 25 27 28 29
78 76 72 64 61 57 53 50 47 43 41 39 38 35 33 31 30 29 27 25 23 22 21 21 21 21 21 20 21 21 21 21 21 23 24 26 27 28
74 70 67 64 57 52 51 47 45 41 39 37 36 34 32 29 29 28 26 24 22 21 20 20 20 21 20 19 20 21 20 21 21 22 24 26 26 27

GFSNE_250_spd_072.txt.gz
Wind_Speed
87 90 94 97 99 102 105 109 113 113 115 120 118 115 115 115 112 112 107 103 95 88 83 81 78 76 76 76 76 76 76 77 80 84 86 89 94 102
91 94 98 100 103 106 110 114 119 119 116 121 121 121 118 115 111 105 101 93 86 81 76 73 70 68 67 67 68 70 71 72 74 75 77 80 85 92
95 97 101 104 107 112 115 119 122 122 119 120 123 122 118 115 107 99 89 85 81 76 71 67 65 62 60 60 61 63 65 67 67 69 70 71 77 86
98 100 103 109 113 116 120 124 125 122 123 121 124 122 115 108 99 91 84 79 73 69 67 64 60 57 56 54 54 58 60 62 63 64 65 68 70 77
102 104 109 113 117 120 124 126 123 122 125 124 121 119 110 102 92 86 79 73 67 62 60 60 56 54 51 49 50 52 55 58 59 61 62 64 68 73
105 108 113 117 120 124 126 125 123 125 127 124 119 112 105 95 86 81 74 67 63 59 59 58 54 54 52 49 48 51 53 55 57 58 60 62 64 68
108 113 116 119 123 127 125 125 127 128 125 120 114 105 96 88 82 75 69 65 62 59 59 55 53 52 53 49 47 49 51 53 53 55 57 59 62 65
113 118 120 122 125 123 124 127 131 128 123 115 108 97 89 84 77 71 67 63 62 56 57 51 50 49 50 48 45 45 48 49 50 51 53 56 59 63
118 119 122 126 122 124 127 129 127 123 117 109 101 93 84 79 74 69 65 61 59 55 54 52 47 46 45 48 44 43 44 45 47 50 51 53 57 60
119 121 124 123 127 128 129 126 121 116 107 100 93 85 80 75 70 67 61 58 56 53 50 53 46 45 40 46 43 42 40 42 45 48 50 52 55 59
120 123 121 126 129 128 125 121 117 110 99 94 85 80 76 71 67 64 58 55 53 51 47 48 43 46 36 42 42 41 39 40 44 47 49 50 53 56
119 119 124 126 129 126 120 116 110 103 94 86 83 76 71 69 66 60 55 53 51 48 45 43 39 44 38 37 41 40 39 40 40 43 46 49 51 54
118 121 124 126 123 120 116 110 102 96 89 83 78 72 69 66 62 57 53 51 48 45 42 40 35 38 41 33 39 40 38 39 38 41 43 46 47 50
123 125 126 123 117 113 109 103 96 90 84 78 73 70 64 61 58 53 50 47 44 43 40 38 34 36 37 36 34 40 39 38 37 40 40 42 43 45
125 125 120 114 110 105 101 95 90 84 79 75 71 66 60 57 54 50 47 44 42 41 39 35 33 34 37 33 32 36 38 38 36 38 40 40 40 41
122 116 110 106 103 99 94 89 84 79 75 70 66 63 57 53 49 46 44 41 40 38 38 34 31 32 36 33 31 34 34 35 36 34 36 34 35 38
111 107 103 100 96 91 87 83 78 74 70 67 62 58 53 49 46 44 41 38 37 36 35 34 31 30 33 33 31 30 31 30 32 32 32 33 33 34
104 102 99 94 90 86 81 77 73 69 66 63 58 54 50 46 43 41 38 36 34 33 31 32 33 31 29 31 31 29 28 28 29 30 30 30 32 33
100 96 93 89 85 81 76 73 69 65 62 58 53 50 46 43 40 38 36 33 32 31 29 29 31 31 30 29 28 28 26 26 26 27 28 29 30 30
95 91 87 84 81 76 72 68 64 61 57 53 50 47 44 41 38 36 33 31 30 30 28 28 28 29 28 28 26 26 26 25 24 25 26 27 28 28
90 86 83 80 77 73 67 63 61 58 53 50 46 45 42 39 37 34 32 30 29 28 27 26 26 27 27 26 25 25 24 23 23 23 24 25 26 27
85 82 79 76 73 69 64 58 56 54 49 47 44 43 40 37 35 33 31 29 28 27 25 25 25 25 25 24 24 24 23 22 22 22 23 24 25 25
80 78 75 71 68 63 60 56 51 50 47 44 42 40 39 36 34 32 30 27 26 26 25 25 24 24 24 23 23 23 22 22 21 21 22 24 24 24

GFSNE_250_spd_075.txt.gz
Wind_Speed
87 88 90 94 94 97 99 100 102 103 107 113 117 122 121 121 115 115 114 112 107 102 99 95 90 86 82 78 76 75 73 72 71 70 71 73 78 83
87 89 92 96 99 102 103 105 109 112 111 118 122 122 124 124 121 118 112 108 104 101 93 90 84 81 76 72 70 68 67 67 67 66 66 68 71 77
94 95 98 102 104 106 107 110 115 118 119 120 124 124 122 124 120 118 113 108 102 95 88 85 80 75 69 66 63 61 62 62 63 63 63 64 66 71
96 99 102 104 105 108 113 117 119 121 127 125 121 124 124 122 119 113 109 105 97 90 83 78 74 69 63 60 56 56 56 57 60 59 61 61 62 65
100 103 105 107 110 114 118 119 122 127 129 127 124 123 121 123 118 110 103 98 93 85 78 73 69 66 61 58 55 53 52 55 56 56 57 59 59 62
102 105 108 112 115 119 120 123 129 128 126 127 124 123 123 120 114 107 100 93 85 80 73 70 66 64 59 56 53 50 49 53 54 54 53 55 58 60
105 109 112 114 117 119 124 129 130 128 128 128 128 124 123 116 110 103 94 86 81 73 69 66 62 62 57 54 52 49 46 50 51 53 52 54 55 59
109 113 114 117 120 124 125 123 123 125 127 130 127 128 120 114 105 97 88 81 75 70 64 63 58 58 54 52 52 49 46 45 49 49 51 53 55 57
113 114 117 122 126 125 123 122 120 122 124 125 126 122 116 110 100 91 84 77 71 67 62 62 57 55 51 50 51 49 45 44 46 48 48 50 52 55
114 119 121 118 119 122 119 121 124 128 127 122 119 116 111 103 93 86 80 74 69 63 58 58 53 51 48 46 49 48 43 42 44 45 46 47 49 52
115 112 114 116 117 118 121 124 124 128 127 118 116 111 104 95 87 81 74 70 64 60 55 54 49 47 46 43 45 46 40 40 42 43 44 45 46 49
109 111 111 112 115 120 122 125 125 125 119 115 110 104 97 88 81 77 70 65 59 58 52 51 45 44 44 41 42 44 38 38 39 39 41 43 44 47
106 107 111 114 117 120 124 126 122 115 114 110 104 96 87 82 77 73 66 58 56 54 50 48 43 40 41 41 38 43 37 35 36 37 39 41 42 45
107 111 114 118 121 123 122 118 113 111 107 102 96 89 82 76 71 66 63 59 53 51 47 45 41 38 37 39 37 39 40 34 35 34 36 37 39 41
112 115 118 120 120 116 112 111 106 102 99 93 88 83 77 72 66 61 59 54 52 48 46 41 38 36 35 37 34 36 37 35 33 32 34 35 35 38
116 119 118 115 111 108 105 101 100 96 91 87 83 77 72 67 62 57 55 51 49 45 43 39 35 33 33 35 32 31 35 33 33 31 31 34 34 37
114 112 109 107 105 103 101 97 91 88 85 82 78 74 67 63 59 55 52 49 46 43 40 37 34 32 32 33 32 29 32 31 31 32 30 31 33 33
107 105 103 103 101 99 96 93 89 83 78 77 73 68 63 59 55 52 49 46 43 41 39 36 34 32 31 31 30 28 29 28 28 29 29 28 29 30
104 103 101 100 97 94 91 88 85 80 74 69 68 64 60 55 52 49 47 44 41 39 37 34 33 32 31 29 26 28 28 27 26 26 27 27 27 29
102 100 97 94 92 89 86 83 80 75 69 65 62 60 56 53 49 47 45 42 39 37 35 32 32 31 30 29 25 26 26 25 24 24 25 26 27 28
99 98 94 90 86 84 83 79 75 70 65 62 59 56 52 49 47 45 43 40 38 36 34 31 30 29 29 28 26 26 25 23 22 23 24 25 26 26
95 92 89 86 83 80 78 75 71 67 61 57 55 53 49 46 45 43 41 38 36 34 32 31 29 28 27 27 25 24 23 22 22 22 23 23 24 24
91 87 85 82 79 76 74 70 66 61 56 52 50 48 47 44 42 40 38 36 34 32 30 29 27 27 26 26 25 24 22 22 21 21 22 23 23 23

GFSNE_250_spd_078.txt.gz
Wind_Speed
82 86 88 89 92 95 98 99 100 100 101 106 109 115 117 121 124 123 124 118 115 112 114 113 109 101 93 89 85 79 76 73 71 69 68 67 67 68
82 82 86 91 94 98 101 103 105 105 104 110 114 118 121 123 128 130 122 119 116 115 112 105 99 95 89 82 77 72 68 66 64 64 62 61 61 63
82 87 91 95 101 103 104 107 109 111 112 113 119 121 125 129 127 124 122 120 120 116 107 98 93 88 84 78 71 68 64 62 60 60 57 57 57 58
91 94 98 100 102 104 107 110 113 117 120 120 121 125 127 122 123 120 119 119 118 112 104 94 86 80 78 75 68 65 61 58 57 57 56 55 54 55
97 100 101 103 106 109 112 115 118 121 124 127 127 123 121 123 120 122 121 116 111 106 99 93 86 81 75 72 66 62 57 55 54 55 55 54 54 54
98 101 104 107 110 113 116 119 122 125 128 126 122 122 121 121 124 126 120 116 107 102 93 88 81 76 73 68 64 61 56 52 50 51 53 52 52 53
101 103 107 110 113 116 118 120 123 124 120 122 119 120 122 126 127 125 118 107 105 99 84 84 76 72 70 66 62 59 54 50 47 48 51 50 50 51
103 107 112 115 115 117 117 117 116 116 115 117 116 119 121 125 123 118 111 106 99 94 80 79 71 68 65 61 58 55 52 48 44 44 49 49 49 50
103 106 109 112 112 110 108 108 111 114 117 119 121 122 122 121 117 111 107 101 97 88 76 75 68 64 60 58 55 53 50 46 42 42 46 49 47 48
106 107 106 104 105 107 106 107 109 113 116 119 123 122 118 116 113 108 102 96 89 84 73 70 65 60 58 54 52 50 48 43 39 41 43 45 47 46
103 98 97 101 104 107 107 109 111 114 117 121 119 118 114 113 109 103 98 90 83 80 71 65 62 57 55 50 48 46 45 41 38 40 40 41 43 44
91 95 99 101 104 107 110 111 112 115 115 113 113 113 110 105 102 98 90 84 77 73 66 62 57 51 52 47 46 43 42 38 35 38 37 38 40 41
93 97 100 103 106 108 111 114 114 112 110 108 107 107 104 99 95 91 85 78 72 66 61 58 53 48 48 45 42 41 40 37 33 36 37 37 37 39
96 98 101 104 106 109 112 113 110 108 106 104 103 102 99 94 88 81 78 76 69 62 56 53 50 45 44 42 41 38 39 37 32 33 35 36 35 37
98 101 102 104 107 109 111 109 109 107 103 100 97 95 93 87 82 77 72 66 63 59 55 50 46 43 41 39 38 37 36 35 33 31 32 34 35 36
103 104 106 109 109 109 108 109 107 104 100 95 91 88 87 82 76 70 66 62 58 55 51 47 43 40 38 37 36 34 35 34 33 30 29 32 34 35
106 107 108 110 110 109 108 105 103 100 97 93 87 81 81 77 71 65 62 59 56 51 48 44 41 38 36 35 34 33 32 32 31 30 28 29 32 34
108 110 110 108 108 105 101 99 98 96 93 90 85 75 75 73 68 62 59 55 52 48 45 42 39 37 34 33 32 32 31 30 30 29 28 28 30 32
113 111 108 106 103 100 96 93 92 91 87 84 81 76 69 69 64 59 54 51 47 45 43 40 38 36 33 31 30 29 29 29 28 27 27 28 29 30
111 108 106 102 98 95 92 90 87 84 82 79 77 74 68 62 59 55 50 46 44 42 41 38 36 35 32 30 29 27 27 27 26 25 26 27 27 27
110 106 102 97 94 91 87 84 82 79 77 75 70 67 63 58 53 50 47 43 42 41 38 37 34 33 31 29 27 26 25 25 24 24 24 25 26 25
103 99 96 94 90 86 83 80 78 74 71 67 64 61 58 54 50 46 44 41 40 38 36 34 33 32 30 28 26 25 24 23 22 22 22 24 24 25
98 95 92 89 85 82 79 75 72 70 67 63 60 55 52 49 46 42 40 38 37 35 33 31 31 29 28 27 25 24 23 22 21 20 21 23 23 24

GFSNE_250_spd_081.txt.gz
Wind_Speed
83 85 88 88 87 87 87 88 90 90 96 106 109 113 116 119 122 122 122 121 116 112 111 110 111 113 113 108 99 94 87 85 82 77 74 72 69 68
86 85 86 88 86 89 92 95 98 101 103 107 112 116 119 121 120 121 119 116 112 112 112 113 115 114 106 96 90 87 80 79 77 72 69 67 65 63
83 86 86 89 92 94 96 101 106 109 109 112 115 118 118 118 118 116 112 114 114 114 115 116 114 110 102 93 86 79 74 72 71 68 64 62 61 59
82 85 88 92 93 97 102 107 109 113 114 114 116 116 118 115 111 112 112 113 117 119 118 116 110 102 99 89 85 76 70 67 65 62 59 58 56 56
84 87 90 94 98 103 107 111 114 116 116 113 115 114 111 111 112 112 113 116 119 120 119 114 108 102 97 89 83 73 67 64 59 57 56 56 55 54
89 92 96 100 104 107 110 112 114 114 116 118 113 105 109 112 115 117 117 119 119 119 115 110 107 100 92 82 76 71 65 60 57 54 53 52 52 53
92 96 99 101 104 106 108 111 111 108 105 104 104 105 109 111 115 117 118 116 113 115 110 106 101 95 85 75 70 67 64 57 53 51 49 48 49 50
92 96 98 100 102 102 100 97 98 100 103 105 105 109 110 113 115 115 113 111 110 110 105 100 95 86 78 73 67 64 59 55 50 47 46 45 47 49
90 90 90 92 93 93 94 96 100 105 107 107 108 110 112 114 112 110 110 111 109 106 98 93 88 80 74 70 64 60 56 51 47 43 42 42 46 48
84 85 89 90 92 92 92 94 99 104 106 108 112 112 111 110 110 110 109 108 104 101 93 86 82 76 71 65 60 57 51 48 44 39 39 40 43 46
83 85 86 86 89 91 94 96 98 102 105 109 111 110 109 108 109 109 108 104 98 95 88 76 77 70 68 61 56 53 49 45 41 37 37 39 40 42
89 89 89 90 92 96 98 100 100 104 106 107 109 110 110 109 108 105 102 99 94 87 82 73 71 66 64 56 52 49 46 43 39 36 36 38 38 39
94 94 95 97 98 102 105 106 106 106 106 106 105 107 106 104 101 98 96 93 88 83 76 68 67 62 59 56 47 47 44 40 38 34 34 36 35 37
100 99 99 100 105 110 111 112 111 109 107 103 104 102 99 98 94 92 89 86 82 78 71 62 61 58 56 52 48 42 42 38 36 33 32 33 34 35
103 102 103 105 110 113 114 112 111 108 106 106 102 99 97 94 91 86 84 80 77 74 67 60 56 55 52 48 45 41 39 36 35 30 30 31 33 34
106 107 110 111 112 113 113 112 110 108 108 102 99 97 94 92 86 81 81 76 71 69 62 57 53 50 47 45 42 38 38 34 34 30 28 30 32 34
109 112 115 114 114 114 115 112 111 109 103 100 96 94 92 88 82 77 76 70 65 62 57 52 49 46 43 41 40 36 36 34 31 30 28 28 31 33
116 117 116 115 114 113 111 111 106 103 100 96 94 91 87 85 79 70 69 66 60 57 53 48 44 42 40 38 37 35 34 32 31 28 27 28 30 31
117 116 116 113 111 108 104 101 98 95 94 92 88 85 83 79 72 66 62 60 57 52 48 45 42 39 37 35 36 32 33 30 30 26 26 27 30 30
119 117 113 110 107 103 100 97 94 92 89 86 82 79 76 72 68 63 58 56 53 48 44 42 40 38 35 32 33 31 30 29 28 26 25 27 29 30
117 117 113 108 105 100 97 95 91 87 83 80 77 72 68 67 64 58 53 51 47 44 41 38 38 36 34 30 31 29 27 27 27 25 25 26 27 29
110 107 104 101 98 96 93 89 86 82 78 74 71 68 64 60 58 54 49 46 44 42 39 37 36 34 32 29 28 28 26 26 25 25 25 25 26 26
104 101 99 96 93 91 87 84 79 76 73 69 66 61 58 55 52 49 46 42 41 39 36 35 34 32 30 28 27 26 25 25 24 23 24 25 25 25

GFSNE_250_spd_084.txt.gz
Wind_Speed
79 79 82 85 88 87 89 91 92 89 93 98 101 107 108 111 114 116 116 116 118 119 117 112 111 112 111 114 115 113 111 99 90 85 79 76 75 75
77 79 81 82 83 87 90 89 91 93 95 101 106 109 112 113 114 116 119 119 114 107 108 110 113 112 114 114 112 109 103 92 85 78 76 73 70 69
80 82 83 83 84 87 89 93 97 100 103 105 107 109 110 114 116 113 110 106 107 109 112 113 114 115 115 114 112 105 96 87 80 73 73 68 66 65
82 81 83 84 87 90 95 98 101 102 102 103 108 110 110 109 108 108 110 109 110 113 114 113 112 111 112 111 108 101 95 85 78 71 68 65 64 61
83 83 86 88 90 92 93 95 99 101 103 102 101 101 104 107 109 109 108 108 111 111 110 110 110 110 110 109 104 100 90 82 76 68 64 63 60 57
76 75 77 81 85 87 89 91 93 96 98 97 97 99 101 105 104 105 105 108 107 110 110 109 111 111 110 108 101 91 85 79 72 65 61 59 56 54
75 78 80 81 84 86 88 89 91 92 92 92 93 93 95 99 102 103 103 103 104 108 108 107 109 108 106 98 92 85 79 73 68 62 57 55 52 51
75 78 77 83 84 87 87 87 87 87 90 90 91 94 95 100 100 101 104 104 103 106 106 105 107 103 97 93 86 79 73 69 64 59 54 50 49 48
74 75 80 83 83 83 84 87 88 90 91 92 93 96 99 101 101 103 104 105 105 107 106 101 102 96 93 88 79 74 69 64 59 55 50 47 46 45
79 79 83 85 84 89 92 95 96 98 99 98 100 102 103 104 105 105 106 105 105 106 104 98 95 91 88 83 74 68 65 60 55 51 48 44 44 43
81 84 87 88 91 96 99 99 100 102 102 102 105 105 106 108 108 107 108 106 101 100 101 94 90 86 84 79 70 61 60 57 51 48 44 43 42 42
89 92 92 94 98 104 104 102 100 101 104 106 108 108 109 110 112 111 108 103 99 95 98 92 85 80 77 75 67 56 57 53 49 44 41 41 40 40
93 95 95 100 104 108 109 107 105 103 104 106 107 109 110 111 112 108 105 100 94 91 92 86 81 76 71 69 67 54 52 50 47 41 39 39 37 38
96 98 102 106 110 112 113 112 109 109 107 107 107 108 108 106 106 101 97 95 91 89 86 82 76 72 69 66 61 53 47 47 43 39 37 36 35 35
103 104 107 111 115 116 116 114 113 110 109 108 107 106 104 100 98 97 94 91 86 85 82 76 70 67 64 60 56 49 46 43 41 38 34 33 33 34
107 111 115 117 118 117 116 114 112 111 109 107 105 103 98 97 96 94 90 86 79 80 79 70 65 62 59 55 52 45 44 38 39 36 32 32 33 33
115 118 120 120 120 119 116 114 113 111 109 106 101 98 95 93 93 91 86 80 74 73 74 64 61 59 55 50 47 43 40 37 35 35 31 31 34 33
119 121 122 122 121 118 116 115 113 111 108 105 101 96 93 91 89 87 82 76 70 66 68 61 57 55 50 45 44 41 37 35 34 33 30 31 33 31
122 123 123 122 118 116 114 112 110 107 104 100 97 94 90 87 84 79 77 70 66 64 62 56 52 49 46 40 41 37 36 33 33 31 30 30 31 29
125 124 121 118 116 112 110 106 103 100 96 93 91 88 86 80 77 74 70 65 61 58 56 50 46 45 41 37 37 36 33 33 31 31 28 28 30 29
124 120 117 114 111 107 104 101 97 94 92 89 85 81 77 74 70 67 65 59 55 54 51 46 43 42 38 35 34 35 30 31 30 29 28 28 28 28
116 114 111 108 104 100 97 94 92 89 85 82 78 74 71 67 64 61 58 55 51 49 46 42 40 39 36 33 33 32 29 29 29 29 27 27 27 27
110 106 103 99 96 93 90 88 85 81 77 74 71 67 64 61 58 56 53 50 46 44 42 39 37 35 33 32 31 31 27 28 28 27 27 27 26 25

GFSNE_250_spd_087.txt.gz
Wind_Speed
65 68 70 74 81 83 87 90 93 94 90 90 93 98 100 103 104 104 105 104 106 107 108 107 107 109 109 110 111 113 113 113 112 110 104 97 84 85
71 75 80 84 89 90 95 93 92 87 85 89 91 95 97 100 101 104 106 107 108 107 107 107 107 106 107 111 113 113 112 114 113 107 101 90 85 75
84 89 90 90 93 95 91 84 79 81 83 86 88 93 98 100 102 103 104 102 101 100 101 103 105 106 108 111 110 112 113 114 110 103 96 88 77 72
90 89 90 89 86 81 75 76 80 83 82 85 90 94 93 92 94 94 96 97 95 97 98 100 103 104 103 104 105 107 109 108 105 98 88 81 73 69
88 88 81 81 76 76 79 81 82 83 84 85 89 88 88 93 95 95 95 94 94 95 98 103 103 103 102 104 105 106 107 104 98 91 85 77 70 66
86 85 80 78 79 82 82 81 83 84 85 85 84 87 92 92 93 94 92 94 95 100 101 101 101 101 103 104 105 106 104 99 93 85 78 72 66 62
83 78 79 82 84 84 85 86 88 87 87 87 88 91 94 95 97 98 98 98 97 101 99 100 102 103 106 105 104 102 98 93 86 80 74 68 62 58
78 79 77 78 82 84 85 87 86 87 88 91 93 94 96 98 101 103 100 99 95 99 99 98 105 104 105 103 101 98 92 87 80 74 70 63 56 54
75 77 80 81 82 83 85 83 87 88 92 93 94 98 102 106 105 103 102 100 98 100 101 97 104 103 102 99 96 92 87 82 73 70 66 58 53 51
78 80 82 83 82 83 85 87 88 91 93 95 98 103 107 108 108 105 103 101 99 102 104 99 100 99 99 94 91 86 81 75 69 67 61 55 52 49
81 83 84 85 86 85 87 90 94 98 101 103 107 110 112 112 112 108 106 103 101 101 106 99 99 97 95 91 86 82 75 69 66 64 58 53 49 47
84 86 88 89 89 90 90 93 97 102 105 109 113 115 116 114 113 110 108 105 103 97 103 98 97 95 89 86 82 78 69 63 61 60 53 50 46 44
88 89 90 90 92 92 94 99 103 106 110 115 116 117 116 116 113 113 111 109 104 102 103 98 92 90 86 80 78 74 65 58 58 54 49 46 41 40
92 93 93 94 94 97 103 107 111 113 116 119 118 117 116 114 113 111 110 108 104 101 100 94 87 86 80 76 71 68 62 55 55 50 47 42 38 38
97 96 97 98 102 106 109 112 116 120 122 121 119 118 116 114 111 110 108 104 102 99 96 91 85 81 74 71 67 64 57 54 52 47 43 38 38 36
101 101 102 106 109 109 114 117 120 123 123 122 120 118 115 113 110 107 103 101 98 95 92 86 78 76 71 62 62 60 55 53 46 45 38 37 36 36
105 106 108 109 113 116 120 123 124 125 124 123 119 115 111 108 105 103 99 94 91 88 85 79 72 69 68 61 58 53 51 46 42 41 36 35 35 35
110 110 112 117 120 122 125 126 125 124 122 119 115 111 107 103 100 97 92 88 83 80 75 72 68 63 62 58 52 50 46 42 39 37 36 33 35 31
112 116 118 120 123 126 125 123 123 120 116 112 109 105 101 98 94 89 84 80 76 73 71 66 62 57 56 55 47 46 43 39 35 36 34 33 33 28
118 120 122 124 125 123 123 121 116 113 109 105 101 98 93 90 86 81 78 74 72 68 66 63 58 53 50 48 44 43 40 36 35 34 31 31 31 27
122 124 124 123 122 120 116 113 109 106 102 98 95 90 86 82 79 75 72 69 65 63 60 57 54 48 46 43 40 40 36 33 34 32 30 29 29 27
121 120 120 117 114 111 108 104 101 98 95 90 86 83 79 75 71 69 65 63 59 56 54 51 47 44 41 38 37 37 33 31 32 31 29 28 28 27
115 113 111 109 105 102 98 95 93 90 86 82 78 75 71 67 64 62 60 56 53 50 47 45 41 40 37 35 35 34 30 29 30 29 28 26 26 26

GFSNE_250_spd_090.txt.gz
Wind_Speed
61 55 73 74 76 81 85 85 86 87 87 86 87 81 82 83 86 86 87 88 91 96 98 97 98 96 94 94 95 96 97 100 100 101 104 104 102 103
58 71 83 87 87 86 87 89 94 91 87 84 79 83 85 86 87 88 90 91 94 98 98 98 98 95 98 98 97 97 98 100 102 102 104 106 106 104
67 77 88 88 84 89 91 92 87 85 84 80 81 84 86 87 89 91 94 97 97 96 97 97 98 97 98 99 101 101 101 101 102 104 104 107 107 104
75 83 85 87 92 90 90 88 84 82 82 83 85 86 87 89 92 95 98 98 97 96 97 98 99 100 101 103 102 102 102 101 104 105 107 107 104 96
75 82 88 88 86 86 88 83 83 83 83 84 86 87 89 92 95 95 96 95 95 96 97 100 102 105 106 106 106 104 104 104 105 106 106 104 96 87
82 82 80 75 74 77 81 84 86 86 85 85 86 90 90 95 94 93 92 95 96 95 100 104 107 108 109 108 106 106 106 107 106 105 102 98 91 85
67 63 70 72 75 75 74 77 81 84 85 87 88 90 93 95 97 94 93 93 93 98 105 110 113 112 112 110 108 107 107 106 104 102 98 93 89 82
67 70 73 77 79 82 84 85 85 86 87 88 92 95 96 96 96 95 95 94 96 103 107 111 116 113 114 109 108 106 104 101 100 97 92 88 83 77
72 75 77 78 81 84 88 90 91 90 91 93 95 97 95 96 96 96 97 100 103 108 110 110 115 113 112 111 107 103 99 97 95 92 88 83 77 71
75 79 82 84 85 90 93 94 95 93 94 96 95 94 96 97 97 99 104 106 110 114 116 110 115 112 109 110 105 98 96 93 90 86 81 76 71 65
80 84 87 90 92 95 98 98 97 95 96 96 96 97 98 99 103 106 110 112 116 117 120 113 115 110 107 104 100 96 92 87 84 79 76 71 66 60
83 88 91 93 97 100 103 103 101 100 101 99 99 100 102 106 110 113 115 117 119 114 119 115 112 110 103 101 98 92 87 82 78 74 71 66 61 55
88 92 95 99 103 105 108 108 107 105 103 103 103 106 111 114 117 120 122 123 119 118 120 114 110 109 103 96 93 89 82 77 72 70 66 60 56 52
94 98 101 105 109 111 112 112 110 106 105 104 108 111 114 118 121 124 124 123 120 118 118 116 109 105 99 93 89 83 77 72 65 64 60 56 53 50
100 104 108 112 113 115 116 114 110 108 109 112 115 117 120 121 123 124 123 122 120 118 115 112 105 100 93 89 82 77 71 65 64 59 55 50 47 46
108 112 115 117 120 120 117 114 112 113 115 118 119 121 123 123 124 123 121 118 114 114 111 106 98 93 88 81 77 72 65 59 61 55 53 46 44 43
116 118 120 124 123 119 117 116 117 119 120 122 123 123 124 123 122 119 115 111 106 102 100 99 93 86 81 74 72 68 60 56 54 51 48 43 42 39
122 125 125 125 122 121 120 120 121 123 124 123 123 122 121 117 113 109 104 101 98 94 90 87 85 80 74 69 66 63 56 56 49 46 44 39 38 34
128 126 126 123 122 121 121 122 123 122 122 120 118 113 109 105 103 99 96 93 91 87 82 78 75 71 67 63 61 57 54 49 47 42 40 35 35 31
128 127 123 122 121 121 121 121 120 117 115 111 108 105 102 99 95 91 88 83 80 77 75 71 67 65 61 56 55 52 50 47 41 40 37 34 33 29
126 124 123 122 121 120 118 115 113 110 107 104 100 97 93 89 86 82 78 75 71 69 68 65 61 58 54 50 48 46 46 40 37 37 33 32 31 29
121 119 119 118 116 113 109 106 103 101 98 94 91 88 84 80 77 75 71 68 66 63 62 58 54 51 48 45 42 43 39 35 35 34 31 29 29 28
118 116 114 110 108 105 103 99 96 94 90 87 83 79 76 73 69 68 65 62 60 56 54 50 48 46 43 41 40 38 35 31 33 31 29 27 27 27

GFSNE_250_spd_093.txt.gz
Wind_Speed
55 60 61 59 59 59 64 74 72 73 75 81 78 80 83 85 85 85 84 85 86 86 87 89 89 92 93 94 95 95 96 97 96 97 97 97 97 97
47 54 55 58 65 71 71 72 78 77 75 76 79 80 82 85 87 87 88 89 88 89 90 91 94 96 97 99 101 99 99 95 95 98 100 99 101 103
48 50 47 62 62 68 72 74 78 74 73 75 76 77 79 82 86 87 88 89 90 92 95 96 98 100 100 99 99 99 96 95 99 103 103 104 105 106
48 47 51 61 63 66 75 73 71 72 74 77 80 80 82 85 87 87 89 91 93 96 98 101 102 101 101 100 99 97 97 101 104 106 107 107 108 107
51 59 55 60 65 65 69 74 75 78 79 80 83 84 85 87 87 88 92 95 96 97 101 102 101 102 102 101 99 98 101 103 107 108 108 109 108 106
47 52 57 61 69 73 77 78 81 83 83 87 89 89 91 94 94 94 94 95 95 98 102 102 100 102 102 103 101 101 105 109 112 111 111 108 106 105
57 60 63 65 70 75 78 81 85 89 91 90 92 95 97 100 101 99 100 98 99 101 103 102 105 103 104 104 103 106 110 113 113 112 110 107 105 101
61 65 66 65 74 79 79 79 83 88 92 96 97 98 100 104 106 107 104 105 106 105 105 102 101 104 106 108 111 113 116 117 115 113 109 107 103 97
66 67 67 73 77 80 85 89 91 91 95 99 100 103 106 109 108 109 108 109 109 109 104 98 104 105 109 112 117 117 117 116 114 111 108 106 99 92
70 72 77 77 81 84 84 87 90 94 96 99 103 106 109 111 112 113 115 113 111 109 107 104 108 110 113 116 120 119 116 115 113 110 105 99 93 87
77 79 80 80 86 90 91 91 93 96 99 102 107 112 113 114 116 118 120 117 112 109 111 111 113 115 116 117 119 119 116 113 109 104 98 92 87 82
82 83 83 87 91 94 97 96 99 100 104 108 112 115 117 119 121 123 122 117 114 111 115 116 117 117 115 117 117 120 113 104 97 94 90 86 81 77
85 86 89 93 96 102 101 102 104 108 112 115 118 120 122 124 127 126 121 118 116 117 121 118 118 119 116 112 115 110 103 95 89 85 84 81 77 71
89 92 95 98 104 107 107 108 112 116 119 123 123 126 128 129 128 122 121 119 119 120 123 123 118 118 114 109 104 101 95 91 83 78 75 75 72 64
94 98 102 107 110 112 113 117 121 123 126 127 130 133 132 127 123 122 121 122 122 123 123 123 116 111 105 101 96 94 90 85 78 72 69 71 66 58
101 106 110 114 117 120 123 126 127 129 132 136 138 133 126 124 124 123 124 124 122 121 117 113 108 101 97 95 91 89 85 79 71 67 65 66 59 53
109 114 118 122 125 128 132 132 134 137 140 137 129 127 126 126 124 123 119 116 112 110 109 107 103 96 91 88 85 81 77 71 65 61 60 60 54 51
117 121 126 129 133 136 136 138 141 139 132 128 128 126 123 121 116 113 109 105 102 100 98 96 92 89 84 80 76 73 70 64 60 57 54 53 48 48
125 130 134 136 137 137 140 140 134 128 127 125 121 116 112 108 106 102 100 97 94 92 90 87 82 78 76 74 70 66 63 59 56 52 50 46 43 43
134 138 137 137 138 137 132 127 125 123 118 113 110 106 104 100 98 95 92 90 87 84 81 77 72 70 68 66 65 60 56 55 50 46 45 41 40 38
136 136 136 135 130 125 123 120 114 110 107 103 101 97 95 93 90 87 84 81 78 75 73 69 64 63 61 59 57 53 50 48 44 42 40 38 37 35
133 131 128 125 121 117 112 108 105 102 99 96 95 92 88 85 82 79 76 73 70 67 65 61 57 56 53 51 48 46 44 41 39 38 38 34 33 32
128 125 122 116 110 106 104 101 98 95 92 89 86 82 78 76 74 71 68 64 61 58 56 52 51 49 46 44 43 41 40 37 36 36 33 32 32 30

GFSNE_250_spd_096.txt.gz
Wind_Speed
61 55 60 60 60 57 45 48 56 62 70 70 69 71 77 80 76 76 78 82 82 83 84 85 86 87 87 89 91 93 96 98 99 100 99 98 99 98
53 55 55 54 57 48 47 46 51 62 68 70 68 76 82 84 82 82 85 88 87 88 88 91 90 92 92 93 95 96 97 99 100 100 101 100 102 100
50 53 53 56 51 50 53 50 54 57 66 71 77 79 80 88 92 92 96 95 93 93 92 93 94 96 97 98 99 97 97 99 103 104 103 103 102 101
53 52 53 54 53 56 54 53 58 63 67 70 77 78 84 94 95 95 95 95 94 99 99 100 98 98 100 102 100 101 106 107 107 104 103 102 103 102
44 49 50 49 53 59 62 65 66 69 70 72 79 78 87 87 86 88 90 95 97 100 100 102 103 104 105 106 108 109 109 109 107 105 103 103 102 103
48 52 56 60 63 66 66 67 69 71 72 76 84 87 92 93 92 94 97 96 99 103 106 108 109 111 111 112 114 114 114 111 108 105 105 105 106 108
54 57 59 62 64 67 68 69 71 74 79 84 85 87 91 95 99 100 102 102 104 108 110 114 116 116 115 117 117 118 118 112 109 107 107 108 110 111
54 58 61 65 68 70 73 74 77 80 82 82 86 87 91 97 101 108 110 110 109 112 113 117 121 121 124 124 123 121 119 113 111 109 110 112 113 114
56 58 61 65 70 75 79 81 82 85 85 83 84 89 92 96 103 106 106 110 113 117 120 119 123 125 126 126 125 125 121 116 111 113 115 116 116 115
58 63 67 71 75 78 81 85 87 89 89 89 90 93 97 102 107 109 110 113 116 120 125 124 127 128 129 128 124 121 121 118 116 117 118 117 116 113
68 71 76 78 82 85 90 93 92 92 90 92 95 99 103 107 111 113 116 119 121 126 128 130 130 132 131 125 122 122 121 120 120 119 119 116 112 106
78 82 83 87 90 94 97 99 101 97 97 99 102 107 111 114 118 120 121 125 130 129 134 135 135 136 129 125 124 122 121 121 120 116 114 108 104 99
86 89 91 94 98 103 104 110 108 104 103 106 110 115 119 123 124 126 130 131 134 137 139 140 135 133 130 124 123 123 122 119 113 111 105 100 96 92
93 95 99 101 104 109 111 118 114 110 111 115 119 125 128 129 131 132 134 137 140 142 140 135 130 128 127 123 122 120 114 109 105 101 97 91 87 85
99 102 105 107 112 115 120 122 118 116 120 124 129 131 133 133 135 136 140 143 141 135 131 131 128 126 121 115 109 109 107 104 100 93 88 84 80 76
106 109 110 115 118 124 126 125 122 125 129 132 135 136 136 137 139 140 137 131 129 130 127 124 120 114 109 104 99 98 99 95 94 89 81 76 73 69
112 114 117 122 127 130 132 128 129 133 136 137 138 139 138 137 136 130 127 124 119 117 114 111 107 103 99 94 92 91 90 87 84 79 73 69 67 63
116 120 123 129 132 136 133 133 137 139 138 138 138 135 133 127 122 119 115 111 108 106 103 100 97 93 89 87 85 82 81 78 75 72 68 63 61 57
123 126 132 133 138 136 136 139 140 138 136 133 131 127 121 116 112 108 106 102 98 95 93 89 86 82 80 79 80 75 71 71 68 64 61 58 55 52
130 134 135 139 137 138 138 136 134 130 128 123 117 113 108 105 101 98 95 91 88 86 84 81 78 75 73 72 72 68 62 65 60 58 54 51 48 48
133 136 138 135 136 133 130 128 125 121 115 111 106 103 99 96 93 90 87 84 81 79 77 74 70 68 66 63 62 57 55 55 52 49 46 44 44 42
136 134 133 133 130 128 124 120 114 110 105 101 99 95 92 89 86 82 79 77 74 70 67 64 61 59 57 55 52 50 49 47 45 42 41 40 39 38
130 131 128 126 123 119 113 109 104 100 97 94 92 88 84 81 77 75 71 67 64 61 58 55 53 50 48 47 45 44 43 41 39 38 37 36 36 34

GFSNE_250_spd_099.txt.gz
Wind_Speed
69 67 65 63 67 70 71 68 63 60 60 60 59 58 59 59 61 69 70 81 79 78 80 81 79 82 83 84 85 85 84 86 86 91 95 97 98 101
66 65 65 68 66 64 65 65 66 61 61 61 59 60 64 67 68 69 74 79 79 82 85 82 89 86 88 88 87 89 92 93 93 99 102 103 105 105
67 66 63 60 60 61 61 62 59 65 60 62 65 67 67 68 70 74 76 78 81 86 83 87 91 90 93 95 94 98 98 98 97 103 106 106 107 109
57 55 52 51 49 50 55 58 61 64 65 65 68 69 69 73 74 77 80 83 86 84 86 92 95 96 97 101 103 107 108 106 105 111 112 112 113 112
42 42 46 49 50 54 58 59 60 62 65 66 68 70 72 75 78 81 85 88 91 90 90 92 97 102 106 106 109 110 112 114 116 117 118 118 119 121
45 47 49 51 52 55 57 58 61 61 61 63 65 66 69 73 78 84 89 92 93 94 92 95 99 99 104 108 112 115 117 119 121 122 122 124 126 126
50 52 53 55 56 58 59 59 60 64 68 72 74 76 78 81 86 88 90 93 97 98 98 98 100 103 106 110 113 117 120 123 123 125 127 129 130 129
51 54 56 59 60 61 62 64 69 70 78 80 80 84 86 88 92 95 99 99 98 99 101 101 104 105 110 114 116 118 121 123 125 128 130 130 130 129
56 59 61 63 65 67 72 75 79 81 85 88 90 92 94 96 99 102 105 109 107 106 106 106 110 113 116 118 120 122 124 127 131 132 132 133 129 125
61 63 65 68 72 76 79 81 84 88 91 94 97 101 103 103 106 109 113 116 117 113 113 113 118 119 122 122 124 126 129 131 134 135 133 127 124 124
67 70 73 74 77 81 85 87 91 95 98 101 104 107 109 109 112 117 120 123 122 118 118 122 123 126 127 127 129 130 131 133 135 133 127 126 125 123
75 77 78 82 86 91 93 96 99 103 106 109 112 115 116 118 120 124 128 130 129 124 127 131 131 132 132 129 130 134 136 133 127 125 126 124 122 119
81 82 86 89 93 97 100 104 107 110 113 116 119 121 123 125 128 131 132 135 131 130 133 135 134 134 135 129 131 132 128 126 126 124 122 119 115 110
87 89 94 96 98 101 106 109 113 117 120 123 125 128 130 133 136 138 139 136 134 135 136 136 134 133 133 131 126 126 123 120 117 113 111 108 103 100
95 98 100 102 105 107 111 115 120 124 127 129 132 135 138 141 142 141 138 136 135 135 135 135 133 129 126 121 115 113 112 110 107 103 103 99 95 90
100 103 104 107 111 115 118 124 127 129 131 134 138 141 144 144 142 138 135 135 133 131 131 127 122 118 113 110 105 101 102 98 97 95 95 89 88 83
105 107 109 114 117 123 127 131 134 134 138 141 144 145 143 141 136 136 135 129 125 120 117 115 112 107 103 99 96 94 91 88 86 85 84 81 79 76
109 113 117 122 127 130 133 135 139 141 145 145 145 139 137 135 135 131 126 119 113 109 105 103 99 96 92 89 87 84 81 76 78 78 76 72 72 68
117 121 125 129 133 134 137 139 143 143 141 139 138 135 133 129 123 116 111 108 104 99 95 91 87 82 79 79 80 76 69 70 70 69 67 65 63 57
126 128 129 129 131 134 138 138 135 135 133 132 129 127 122 116 111 107 102 97 93 88 84 81 78 76 73 71 72 68 59 64 62 60 58 55 53 50
119 122 126 128 131 132 129 129 129 129 126 124 121 115 111 107 101 96 92 87 83 80 78 75 72 68 65 62 61 59 57 57 54 53 51 48 46 44
120 121 122 122 122 124 125 125 124 122 119 115 110 105 101 95 90 87 83 80 77 74 71 67 63 60 57 54 52 51 50 48 48 45 43 42 41 40
114 115 117 119 122 122 122 118 117 113 108 103 99 95 91 87 83 80 76 73 69 65 62 59 56 54 51 49 47 45 43 42 41 39 37 37 36 35

GFSNE_250_spd_102.txt.gz
Wind_Speed
73 77 81 86 84 77 73 75 72 72 74 73 66 66 64 62 63 63 63 67 66 68 71 74 75 77 80 84 85 86 87 87 89 87 88 90 91 90
80 84 87 84 77 75 76 75 77 75 62 62 58 56 55 59 65 67 68 67 68 69 71 73 75 76 79 81 85 88 92 92 92 93 94 96 98 101
83 83 80 75 76 78 80 73 66 59 50 53 55 58 60 62 62 62 61 62 63 64 70 73 75 78 81 83 86 88 90 95 98 98 98 102 105 109
77 77 77 79 80 76 71 59 55 55 54 51 56 61 61 63 62 64 66 71 71 72 77 79 82 84 85 87 90 92 94 96 97 100 103 105 106 109
75 77 78 78 72 64 55 58 58 58 59 59 59 63 63 66 68 71 75 78 79 80 82 84 88 91 93 93 95 96 96 100 101 104 106 108 111 113
76 74 67 62 58 60 61 61 63 65 66 67 68 68 71 71 78 78 81 83 86 87 88 91 93 95 96 97 99 101 103 105 105 104 105 107 111 114
58 57 55 55 55 59 62 66 68 70 72 74 74 76 78 81 85 87 88 92 92 96 98 99 101 101 102 103 103 106 109 110 112 111 109 110 113 116
51 52 54 57 60 63 67 70 73 77 78 80 81 84 87 90 91 92 94 96 99 102 106 108 109 109 110 111 112 114 117 117 119 119 115 116 118 121
54 57 61 64 66 68 72 74 78 80 82 84 88 92 94 96 98 100 102 104 107 111 113 112 117 115 117 118 120 121 122 123 125 122 120 122 124 124
59 61 64 67 70 75 77 77 82 85 88 92 94 98 100 103 105 106 109 111 115 119 121 121 122 122 124 126 127 129 130 129 127 123 124 125 126 125
68 70 71 73 75 79 82 85 89 92 96 99 101 105 107 110 111 113 115 119 123 126 130 130 131 131 132 132 136 134 133 131 127 128 128 127 128 129
76 78 80 83 85 88 91 94 96 98 102 105 107 110 113 116 117 120 123 129 133 134 137 139 139 143 142 139 135 133 129 129 131 131 131 130 128 126
81 84 89 90 92 95 98 99 102 106 109 111 114 116 118 120 124 127 131 135 138 141 142 145 145 146 145 134 129 130 131 129 130 127 123 122 119 116
88 91 94 97 100 102 102 106 108 111 114 116 118 122 125 128 131 134 140 145 145 144 146 147 144 140 138 134 129 124 124 122 119 116 112 108 106 104
94 97 101 103 106 109 110 112 113 117 120 122 125 130 133 135 141 146 145 143 144 145 143 141 138 136 132 122 117 113 110 109 106 103 101 98 95 94
99 102 105 107 108 111 115 119 122 125 128 131 134 136 140 141 139 139 140 140 139 138 138 137 132 125 120 114 108 102 101 97 96 93 91 89 88 87
104 106 109 112 116 118 117 118 121 123 125 127 130 132 133 133 134 136 137 136 134 132 127 122 118 113 110 104 99 95 89 87 84 83 82 79 79 79
104 106 108 110 113 114 115 117 120 121 122 126 128 128 129 132 132 133 132 130 125 120 115 109 106 102 99 97 88 83 79 76 76 75 72 70 70 69
102 100 103 106 109 113 116 118 120 123 124 125 127 129 129 129 130 128 124 118 114 108 106 99 94 88 85 84 82 69 68 69 66 64 60 59 61 58
104 106 110 115 115 117 117 119 121 121 125 126 127 127 128 126 122 117 113 109 105 98 94 88 83 78 74 72 71 63 61 61 57 54 53 53 52 49
109 116 115 116 117 118 119 120 122 123 124 124 125 124 121 116 112 108 103 98 93 88 84 78 74 70 66 63 62 59 56 53 51 49 48 46 44 42
118 117 117 117 119 118 120 120 121 122 123 122 119 115 112 107 102 97 93 89 84 78 74 69 66 63 60 57 55 53 50 48 45 44 42 41 39 39
117 117 117 117 117 118 118 119 120 119 116 114 111 106 101 96 91 89 85 80 75 69 66 63 59 56 53 51 48 46 44 42 40 39 37 36 36 34

GFSNE_250_spd_105.txt.gz
Wind_Speed
68 70 72 73 74 76 78 80 79 84 84 88 83 83 83 88 76 65 60 60 59 61 60 63 65 65 65 69 71 74 74 76 78 80 81 83 86 86
71 74 76 78 79 83 83 84 85 87 83 85 86 86 89 73 62 63 63 62 63 64 65 67 68 70 72 75 76 78 81 83 86 87 87 88 91 92
74 77 79 80 81 85 87 89 88 88 81 84 86 88 67 62 61 62 65 66 66 67 69 70 72 77 79 83 83 86 88 90 92 93 93 95 96 97
79 80 82 84 86 89 90 90 89 86 85 85 75 63 65 65 66 68 71 73 73 73 74 76 79 83 88 91 93 93 94 95 97 100 100 102 102 103
80 83 86 89 87 89 86 82 87 87 77 66 64 65 65 67 70 73 74 76 78 79 81 83 86 91 93 98 100 100 100 102 104 106 107 108 108 108
84 83 84 86 88 88 87 80 71 68 66 66 67 68 68 69 72 75 79 82 84 86 86 88 90 94 96 97 101 104 106 108 110 113 114 115 115 113
83 85 83 81 77 70 65 64 63 65 70 72 74 75 78 79 79 80 82 84 89 91 95 98 100 102 103 105 107 107 108 110 114 117 119 120 120 120
73 70 64 61 58 58 61 66 67 70 73 75 78 81 83 85 87 91 93 94 97 101 102 105 108 109 112 114 115 115 117 118 119 122 123 125 126 126
58 57 56 58 61 65 68 74 73 77 79 83 86 89 91 93 96 99 101 104 107 108 110 112 116 119 120 120 121 122 124 125 126 129 133 133 131 131
57 59 62 64 68 72 74 80 82 84 88 92 95 97 101 104 105 108 111 115 116 120 121 122 123 123 124 126 127 128 129 132 136 140 138 136 138 139
63 65 68 71 79 76 85 86 90 93 95 98 101 105 108 110 112 116 120 123 125 127 129 130 132 129 129 131 135 138 140 140 140 140 139 137 134 132
74 77 80 81 85 88 90 94 97 100 102 105 108 110 114 118 120 124 126 127 131 135 137 136 136 137 131 132 136 137 138 135 134 134 133 132 131 130
79 82 84 87 90 93 96 99 102 104 108 110 113 118 121 124 127 129 132 134 133 135 136 135 134 135 136 131 128 129 131 131 131 130 127 123 122 121
89 91 93 96 99 101 104 107 109 112 116 118 121 124 126 127 128 129 132 129 128 132 134 136 136 133 132 130 126 123 124 122 118 119 117 112 109 107
93 96 100 104 107 109 109 111 114 118 119 119 119 120 122 122 123 124 127 129 130 133 133 131 130 127 126 121 114 111 107 107 105 103 101 98 96 95
95 97 102 105 109 111 111 111 110 109 108 107 108 114 117 121 124 124 125 125 127 129 132 130 127 121 116 113 106 98 95 91 90 89 87 86 85 84
88 92 95 97 97 96 97 96 96 101 108 113 118 121 122 122 122 123 125 126 128 128 128 124 118 113 110 101 94 89 86 85 82 80 77 77 76 75
91 94 97 98 101 100 100 104 110 114 119 122 127 126 125 124 126 126 127 127 126 122 114 109 105 103 102 98 84 80 82 78 74 71 68 68 67 64
99 101 107 107 104 107 110 114 117 121 129 130 133 130 127 126 126 126 125 124 117 111 105 100 96 92 90 92 85 71 71 68 63 62 60 59 56 55
104 108 109 107 111 113 116 122 128 129 133 134 129 128 126 126 125 125 120 112 108 103 99 93 89 86 80 77 74 68 61 61 58 55 54 52 50 50
106 108 110 114 116 121 123 125 130 134 135 129 128 125 124 123 122 114 109 104 100 95 90 88 83 76 71 67 64 61 58 54 51 48 47 45 44 43
105 110 114 118 121 124 127 129 130 129 127 126 124 122 122 117 111 107 102 97 91 87 84 78 73 69 65 61 57 54 51 48 45 43 41 39 38 37
113 116 120 122 122 124 129 127 125 125 122 122 120 121 113 109 103 98 91 86 85 81 76 70 66 62 58 54 51 49 46 43 41 39 37 35 33 31

GFSNE_250_spd_108.txt.gz
Wind_Speed
65 67 68 70 71 71 73 75 72 75 78 83 84 84 86 88 91 93 85 89 85 73 62 62 64 66 67 70 72 73 74 76 78 80 80 85 87 88
64 66 68 69 72 76 77 77 77 78 81 88 88 91 93 92 91 89 89 83 69 64 68 70 68 70 72 75 77 78 79 81 84 85 87 88 91 92
68 69 70 73 76 78 79 78 83 84 83 88 92 93 92 91 90 87 75 65 66 70 70 73 74 76 76 78 81 84 85 87 89 91 94 96 99 100
68 71 73 73 77 79 80 83 84 86 88 90 96 95 92 90 85 72 68 67 68 71 73 76 77 80 82 83 85 87 90 94 94 97 100 102 104 107
69 72 73 77 82 84 83 85 91 94 96 96 91 92 87 77 70 69 69 72 74 75 78 81 83 86 89 93 96 98 100 103 105 107 109 110 111 113
75 76 78 80 83 85 88 90 92 96 93 90 83 78 74 70 70 73 76 78 78 81 84 87 91 93 97 100 103 105 107 111 114 117 118 119 120 121
77 81 82 85 89 87 89 90 87 79 73 73 74 73 73 72 75 78 80 84 88 90 94 99 102 104 106 110 112 114 116 118 120 122 124 124 125 127
77 77 77 79 82 79 75 70 70 71 72 76 79 79 82 85 84 87 89 91 95 98 100 104 108 110 114 117 120 123 124 127 129 130 131 132 133 130
62 60 61 63 65 66 66 67 71 75 78 81 84 88 90 90 93 97 100 101 105 107 110 111 115 117 121 125 129 131 133 133 134 136 136 135 135 135
56 59 62 65 67 69 71 74 79 80 84 88 91 94 96 100 102 104 107 111 114 116 116 119 121 123 126 131 135 134 133 135 137 139 138 137 136 137
64 67 70 72 75 77 79 83 87 90 92 96 99 101 103 106 109 113 115 119 122 125 127 128 128 131 130 132 135 140 144 143 139 140 140 140 139 138
71 74 77 80 81 83 86 89 93 95 98 102 106 109 111 114 117 121 123 121 123 128 131 128 126 128 125 128 133 138 139 137 136 136 134 132 130 129
74 75 79 81 84 88 91 92 94 97 101 106 110 113 115 116 118 122 124 124 122 118 119 122 126 127 131 131 129 127 125 124 124 124 123 118 117 115
79 81 84 87 91 91 94 98 101 102 106 111 112 111 112 112 110 109 108 112 116 117 121 126 128 129 124 116 114 116 116 111 109 109 109 110 110 108
89 86 88 89 91 92 95 99 101 106 110 105 104 104 100 100 104 107 113 116 118 123 127 129 124 117 118 113 104 103 100 103 102 101 98 95 94 95
85 88 86 84 85 90 93 95 97 97 103 103 106 107 113 116 114 117 119 122 123 130 131 122 120 116 112 107 102 94 92 89 89 88 83 85 86 82
86 81 81 85 91 94 95 94 99 104 108 111 114 117 119 123 123 121 124 128 131 129 126 125 120 113 109 101 92 88 84 85 84 79 78 78 75 71
80 82 83 90 92 96 96 99 104 108 112 115 119 123 125 121 126 131 127 129 128 123 118 112 107 106 102 98 84 77 86 81 77 73 70 69 66 64
85 91 94 92 96 101 103 106 112 116 118 122 127 124 123 129 130 129 128 125 123 119 109 104 97 92 90 92 91 78 79 74 69 65 63 60 58 57
90 92 94 98 100 104 108 114 119 122 125 127 124 126 126 130 125 125 123 121 116 108 104 95 91 88 85 85 85 80 70 66 61 58 56 54 52 50
91 94 95 100 106 110 115 120 124 125 125 125 128 128 129 125 124 121 121 114 106 99 95 91 89 85 83 79 73 67 64 60 56 53 51 49 47 45
95 101 104 109 114 117 122 124 122 124 125 127 128 127 124 122 120 118 110 105 100 95 91 85 85 83 76 71 66 61 57 54 52 50 46 44 41 39
105 109 112 115 119 122 124 125 126 126 127 128 123 120 119 120 114 106 103 99 95 88 83 82 79 73 69 64 59 56 53 50 48 44 41 39 37 35

GFSNE_250_spd_111.txt.gz
Wind_Speed
55 56 53 54 54 59 59 62 66 71 75 75 79 81 82 83 86 85 87 87 86 88 92 91 88 75 65 63 67 66 67 68 71 73 76 77 79 79
56 55 53 55 59 62 64 67 66 68 73 76 79 82 85 86 87 89 86 85 94 96 96 88 77 67 67 68 70 71 74 75 77 78 81 84 86 89
54 54 57 62 65 68 71 69 71 70 70 81 82 84 87 91 90 87 90 99 99 99 90 76 70 71 73 74 75 77 79 81 84 86 90 92 96 99
55 58 62 63 67 71 71 72 71 73 75 79 87 89 91 92 92 98 102 101 93 85 76 74 75 75 78 80 83 86 89 92 94 97 100 102 102 104
56 60 64 66 68 71 73 73 75 77 80 84 86 91 93 95 100 99 93 88 80 74 77 79 81 84 86 89 91 94 98 100 103 106 107 109 111 112
65 66 67 68 68 71 75 79 82 86 89 89 91 95 96 94 91 87 84 82 81 81 84 86 89 92 93 97 101 104 105 108 110 113 115 116 117 119
63 66 69 72 75 80 83 84 84 85 87 87 85 83 82 83 83 83 83 85 89 89 91 95 96 98 102 108 109 111 114 116 118 119 120 122 124 123
72 75 77 82 83 82 84 81 76 75 77 78 79 80 82 85 86 90 91 94 97 100 101 104 106 106 108 114 118 119 122 123 123 125 125 124 126 123
53 54 58 62 62 62 64 67 69 72 76 79 81 84 89 91 93 95 98 101 103 103 103 106 109 108 111 118 120 123 126 125 122 123 122 123 124 123
50 52 56 59 62 65 67 70 74 78 82 84 86 88 92 96 98 100 102 103 108 112 110 110 111 113 114 116 119 123 124 122 123 126 129 134 136 138
56 57 60 62 65 68 71 75 78 81 83 87 90 93 97 100 103 105 106 111 114 116 116 117 117 120 118 117 119 121 123 126 131 135 138 143 145 145
58 61 67 69 71 74 78 82 84 87 89 90 95 98 101 105 109 111 112 111 112 113 118 119 119 116 109 114 119 124 128 134 135 137 138 136 131 127
62 64 70 76 81 82 84 88 89 92 95 98 99 101 105 107 107 107 109 111 112 112 109 108 110 116 119 117 118 127 130 131 128 126 124 122 120 120
69 72 78 82 83 84 91 93 92 99 99 100 100 101 106 106 107 105 104 106 106 106 113 117 119 121 121 120 120 124 122 117 115 110 110 110 110 110
75 79 78 79 90 91 89 92 97 98 97 98 102 104 106 108 109 111 109 110 119 120 125 127 125 126 127 121 114 112 103 103 106 102 99 98 96 95
79 80 73 83 80 93 96 97 95 98 101 105 109 113 109 112 110 111 117 123 129 135 133 130 129 128 124 120 108 97 96 96 93 91 87 87 86 82
80 83 82 75 87 99 101 102 103 105 108 109 108 111 110 115 119 121 124 129 134 133 134 133 129 127 122 110 101 94 90 88 83 78 78 81 77 71
83 85 89 96 99 101 103 106 107 103 103 107 111 114 118 121 124 129 132 133 135 132 128 123 123 119 113 110 96 77 87 79 78 75 71 70 68 64
93 96 100 106 104 100 104 106 103 107 110 114 119 123 124 124 131 135 137 135 132 128 122 119 109 103 97 95 93 77 81 80 76 70 66 63 60 57
105 108 113 103 98 99 102 106 107 110 116 121 121 124 127 131 135 134 130 129 122 120 120 111 103 95 88 85 85 85 80 76 71 67 61 57 54 52
110 100 97 97 98 101 107 112 114 117 120 122 125 128 133 135 131 131 122 117 116 112 106 101 97 89 85 83 81 78 73 68 65 60 57 55 51 48
100 99 96 98 103 108 111 114 118 120 123 125 129 130 130 130 125 118 116 115 113 104 101 95 91 86 82 80 78 73 66 62 59 56 52 49 46 42
101 103 99 105 112 115 117 118 121 123 126 126 126 126 124 120 117 113 113 108 104 100 95 91 85 80 78 77 72 66 61 57 54 50 46 43 39 37

GFSNE_250_spd_114.txt.gz
Wind_Speed
55 55 55 58 55 59 57 58 59 63 66 68 68 69 69 70 69 69 71 74 78 80 86 88 90 91 89 88 97 84 73 66 65 67 70 73 73 75
59 58 58 58 59 59 55 54 55 58 59 62 68 69 70 71 72 74 77 78 82 86 90 92 94 93 97 93 80 75 71 70 72 73 76 79 79 82
58 58 58 59 54 56 57 57 57 59 59 65 70 73 74 75 77 79 81 84 88 91 93 96 99 96 86 79 78 78 79 80 80 83 84 86 87 90
58 57 57 57 56 54 55 57 61 61 63 67 72 75 77 79 81 85 88 92 92 96 98 96 87 84 81 84 87 87 87 89 91 94 95 97 100 103
52 51 54 57 56 59 58 60 63 66 69 71 74 76 77 78 79 83 97 95 92 88 84 82 85 87 90 92 93 95 98 100 102 104 105 106 107 108
50 53 54 57 60 62 63 66 69 71 72 74 75 78 79 84 93 94 84 81 81 83 85 89 91 94 97 100 102 104 105 106 107 109 109 110 110 112
57 58 60 62 66 67 68 69 70 72 74 78 80 84 87 81 78 78 78 82 83 87 91 94 98 102 103 106 108 108 108 106 106 108 111 113 116 112
67 68 69 67 68 68 69 69 72 77 82 83 71 69 70 73 76 77 81 84 90 92 95 100 103 105 107 110 111 113 115 116 117 117 119 120 118 117
59 60 64 68 70 71 71 68 65 65 67 69 72 74 77 80 83 89 93 94 94 95 97 103 106 108 110 114 115 115 117 118 120 121 121 120 121 120
58 58 57 58 59 58 59 62 65 68 72 75 78 81 83 88 92 93 92 92 96 99 103 105 107 106 108 111 112 114 115 113 112 117 118 120 124 127
56 59 60 61 62 64 65 67 69 71 74 78 82 86 91 91 94 94 97 97 104 107 105 105 107 107 111 112 113 111 113 119 118 121 123 128 133 134
56 60 62 63 65 66 67 69 72 74 79 86 88 87 92 89 97 97 102 107 109 111 111 111 113 114 108 113 117 124 125 125 124 128 129 132 132 128
63 65 67 69 71 70 72 77 81 84 85 88 86 90 94 94 102 105 111 115 118 117 115 116 115 117 119 119 121 125 122 122 127 130 128 126 124 122
62 65 68 69 71 75 78 80 80 82 88 92 94 97 98 105 110 109 119 121 123 123 118 118 122 125 123 123 121 121 121 126 126 120 116 114 112 112
65 65 69 74 78 80 82 87 90 92 98 95 98 97 101 110 110 118 124 126 128 126 126 126 126 127 128 125 119 117 115 119 115 111 106 107 102 98
73 76 81 81 82 86 90 90 96 94 95 97 100 103 106 113 119 124 126 128 128 132 127 128 127 130 127 127 121 112 116 108 101 100 95 94 87 82
71 78 82 82 86 86 88 90 94 97 101 105 107 115 116 121 124 121 123 125 126 127 131 133 134 130 129 123 114 117 107 103 95 86 81 82 79 76
78 87 88 94 94 94 98 99 105 108 112 115 120 121 123 116 119 120 122 125 129 131 133 134 129 129 129 127 112 103 105 95 88 81 78 77 75 69
87 92 97 101 101 101 102 107 111 116 122 120 118 118 117 117 118 119 124 129 129 130 131 126 125 120 115 111 103 92 89 86 83 81 78 72 67 63
96 100 100 106 106 107 110 115 119 123 122 117 116 118 118 117 120 127 128 130 131 129 125 122 117 113 108 99 90 85 82 81 79 77 71 65 61 57
104 104 107 109 108 114 120 117 115 112 112 112 114 116 120 122 125 126 128 127 129 123 117 115 112 106 100 92 87 82 78 76 74 70 64 59 56 53
109 109 111 117 117 109 107 108 109 108 106 107 110 112 115 119 123 124 125 124 119 116 111 110 103 96 92 87 84 80 77 73 68 63 59 55 51 48
109 117 116 107 103 105 106 106 103 102 104 109 113 116 118 121 121 115 117 114 111 108 107 99 92 91 87 83 78 75 73 68 62 59 54 50 47 43

GFSNE_250_spd_117.txt.gz
Wind_Speed
47 49 50 52 55 52 53 56 61 59 59 57 58 64 65 64 64 62 60 63 65 66 69 71 72 74 77 79 82 89 91 93 89 80 74 73 75 75
50 53 57 57 57 57 58 60 63 63 56 57 56 59 61 64 64 64 63 65 69 71 73 74 76 78 79 80 91 94 92 83 78 80 83 83 85 85
57 56 57 59 61 60 64 62 60 59 54 57 59 62 66 66 66 67 69 72 74 75 76 77 79 82 83 91 90 84 81 83 84 86 86 86 88 89
57 58 60 62 60 61 60 62 59 55 57 65 64 66 69 70 72 76 76 76 77 79 80 79 76 86 89 85 82 83 84 86 89 91 91 95 96 97
54 55 58 62 66 61 61 59 56 60 62 65 67 69 72 77 79 79 78 78 81 84 87 89 84 85 81 85 89 91 91 93 94 97 98 98 98 99
54 54 63 63 55 54 62 64 67 70 65 68 72 76 81 81 76 77 81 85 86 85 82 82 83 88 92 95 92 90 91 93 98 99 100 100 101 102
58 59 58 56 58 59 60 64 69 69 71 74 77 76 76 77 80 85 84 81 80 81 85 88 92 95 94 94 95 95 96 100 100 100 100 100 101 102
58 58 63 65 65 65 62 68 73 78 75 75 76 76 76 77 81 78 78 82 84 89 93 94 94 98 99 100 98 102 105 110 111 109 111 112 112 113
59 58 61 61 66 66 71 73 72 73 74 75 79 77 75 73 74 79 84 87 91 93 97 100 99 96 101 103 108 109 115 122 122 118 124 123 119 116
65 65 67 70 73 73 71 69 72 74 74 74 72 75 77 80 81 87 90 92 94 99 99 100 99 104 109 111 116 118 124 128 128 129 126 122 120 122
66 68 72 71 68 66 66 69 71 74 76 79 83 85 86 89 91 92 94 95 98 98 102 104 107 111 111 116 124 127 131 132 135 132 127 127 125 124
49 53 56 59 62 65 69 73 77 78 79 81 84 84 88 91 94 95 96 96 100 104 109 111 115 116 114 118 129 132 132 134 132 128 130 127 128 126
51 57 60 61 65 69 67 64 67 70 74 76 77 79 84 87 93 94 98 102 103 109 110 115 118 121 126 130 135 133 134 132 130 128 128 127 127 124
54 55 58 64 65 67 69 71 76 71 73 80 81 87 91 96 99 101 106 106 111 114 118 122 125 128 131 131 129 128 132 129 127 127 126 121 117 113
53 57 65 69 71 74 75 77 79 83 84 87 90 95 99 103 105 109 112 113 116 121 125 125 129 131 126 126 127 126 123 125 125 121 118 110 105 104
65 66 71 75 80 80 81 80 85 89 92 95 97 101 105 108 112 116 115 120 126 126 125 127 126 124 124 121 123 123 121 119 115 110 107 103 99 94
74 75 76 79 84 85 84 86 87 93 97 97 99 107 113 117 117 120 124 127 122 124 128 129 124 123 124 122 122 119 116 113 111 104 98 97 92 85
78 79 83 84 84 87 90 93 97 101 100 103 110 116 120 123 123 129 129 122 119 117 117 119 122 126 125 121 116 114 112 108 104 100 94 87 82 79
85 87 87 86 88 92 96 100 101 103 108 112 117 122 125 126 131 131 120 118 114 116 118 120 120 117 119 114 111 109 105 102 99 94 87 80 77 74
89 90 91 93 96 98 100 102 106 109 113 118 123 125 126 131 127 119 116 116 117 117 116 114 114 114 109 108 106 102 99 96 90 85 81 77 72 68
94 97 99 99 97 99 103 107 111 115 120 124 124 128 128 118 116 115 115 114 114 114 113 112 109 108 105 104 101 96 90 85 83 80 76 72 69 64
99 99 100 100 102 106 109 113 117 119 123 126 126 119 116 114 113 113 113 113 114 111 107 106 105 103 102 99 95 90 85 80 76 76 71 66 62 60
99 104 106 106 109 112 114 117 119 122 123 116 115 111 110 112 112 111 112 108 105 106 102 100 100 100 97 93 88 85 81 76 74 70 67 62 56 52

GFSNE_250_spd_120.txt.gz
Wind_Speed
48 46 42 41 43 45 45 49 51 51 54 61 61 58 56 57 59 56 58 62 63 65 65 65 69 71 70 72 75 76 74 78 78 75 78 86 78 77
51 52 50 48 49 50 51 54 56 58 61 60 64 62 61 58 59 59 61 64 65 67 71 74 73 75 75 78 78 78 81 82 81 86 82 80 83 84
60 53 48 51 52 55 55 56 59 59 61 63 64 64 63 60 63 65 66 67 70 72 76 78 79 80 80 81 83 80 83 90 86 83 86 92 90 88
55 50 52 57 58 57 56 57 60 64 67 64 63 66 65 67 69 68 75 72 74 77 79 78 81 83 86 85 82 90 83 84 89 94 89 96 88 88
57 60 56 56 58 63 64 65 65 67 63 63 63 65 70 72 77 82 80 78 82 85 84 85 89 89 86 83 87 89 94 95 93 88 88 89 89 92
61 56 54 59 62 66 65 65 65 65 65 59 60 65 73 78 79 81 83 85 82 83 85 87 85 84 87 88 90 95 97 98 98 98 97 97 100 97
62 59 60 63 56 64 65 65 64 63 64 66 72 76 78 78 81 84 85 85 86 82 80 82 87 89 92 95 98 100 96 98 102 101 104 107 107 108
63 59 61 65 63 66 63 62 67 67 71 76 79 77 75 80 84 88 86 81 79 84 88 90 94 95 97 98 99 99 103 99 105 110 114 114 115 120
55 60 63 62 64 67 66 69 71 72 76 80 76 80 84 89 89 79 79 85 87 89 86 82 86 87 90 95 97 99 105 108 113 118 118 117 123 125
59 61 59 61 66 69 71 66 72 74 75 79 86 89 90 85 82 84 88 89 85 80 84 90 90 95 99 105 109 112 115 119 122 122 123 124 129 135
61 62 65 65 67 71 72 74 78 83 85 83 79 83 81 83 86 82 79 78 85 87 88 92 94 98 105 112 116 119 122 128 131 127 131 132 133 137
56 55 58 63 67 70 74 78 77 76 81 83 80 82 84 86 88 90 89 93 93 94 98 99 103 106 112 119 122 127 127 134 129 127 128 132 132 128
64 69 72 71 73 75 76 77 77 78 79 79 81 83 87 92 94 94 95 94 95 99 103 103 107 111 120 123 131 131 134 134 129 130 128 127 127 129
57 62 65 68 70 69 68 69 72 74 73 80 81 83 86 90 94 96 96 97 100 105 108 109 114 123 128 133 134 138 138 130 129 126 124 125 124 124
52 59 62 67 70 71 72 75 76 74 80 84 86 87 90 93 92 92 95 102 107 113 112 118 125 132 135 135 139 135 124 127 127 127 123 119 116 112
56 56 56 60 65 68 70 73 75 79 83 86 91 93 95 97 98 98 104 108 116 120 121 127 132 136 139 137 130 126 124 125 125 120 116 112 108 103
67 64 64 70 72 72 72 74 78 82 86 90 94 96 99 103 101 105 112 117 120 123 128 133 137 140 135 130 127 124 122 119 115 112 109 104 103 97
71 73 76 77 77 79 80 84 88 91 94 97 100 100 103 105 108 110 113 118 123 130 134 138 137 136 129 125 123 119 114 110 110 106 103 99 96 90
76 79 79 78 79 81 88 90 93 96 97 104 103 107 107 111 109 113 117 123 128 132 135 135 130 125 124 123 118 114 110 107 105 100 97 93 88 84
75 74 75 81 86 89 93 97 99 103 105 104 109 107 110 114 119 122 124 128 127 129 128 124 122 122 119 116 113 107 105 102 98 96 93 88 81 77
81 86 88 91 94 99 100 102 102 103 103 110 110 112 118 122 123 123 123 124 122 119 118 118 117 114 111 108 105 102 99 96 93 89 86 83 78 75
92 96 97 100 102 105 104 101 107 108 111 113 113 119 124 123 122 121 118 118 116 115 115 112 109 108 103 101 101 98 94 91 87 82 78 75 73 70
103 104 105 106 110 108 103 109 112 111 112 117 121 123 121 122 116 115 115 113 112 110 107 106 103 101 99 98 95 92 89 86 83 79 74 71 66 63